Time,TemperatureF,DewpointF,PressureIn,WindDirection,WindDirectionDegrees,WindSpeedMPH,WindSpeedGustMPH,Humidity,HourlyPrecipIn,Conditions,Clouds,dailyrainin,SoftwareType,DateUTC
2013-10-15 00:01:00,55.9,50.0,30.14,ESE,112,4.2,4.2,80,0.00,,,0.00,Rainwise IP-100,2013-10-15 04:01:00,
2013-10-15 00:02:00,55.9,50.0,30.15,ESE,112,3.5,4.0,80,0.00,,,0.00,Rainwise IP-100,2013-10-15 04:02:00,
2013-10-15 00:06:00,55.8,50.0,30.15,ESE,112,3.3,4.0,81,0.00,,,0.00,Rainwise IP-100,2013-10-15 04:06:00,
2013-10-15 00:07:00,55.7,50.0,30.15,ESE,112,3.5,4.0,81,0.00,,,0.00,Rainwise IP-100,2013-10-15 04:07:00,
2013-10-15 00:10:00,55.7,50.0,30.15,ESE,112,4.0,4.0,81,0.00,,,0.00,Rainwise IP-100,2013-10-15 04:10:00,
2013-10-15 00:11:00,55.7,50.0,30.14,ESE,112,3.7,4.0,81,0.00,,,0.00,Rainwise IP-100,2013-10-15 04:11:00,
2013-10-15 00:12:00,55.7,50.0,30.14,ESE,112,3.7,4.0,82,0.00,,,0.00,Rainwise IP-100,2013-10-15 04:12:00,
2013-10-15 00:16:00,55.7,50.0,30.14,ESE,112,4.2,4.2,82,0.00,,,0.00,Rainwise IP-100,2013-10-15 04:16:00,
2013-10-15 00:17:00,55.7,50.0,30.14,ESE,112,4.4,4.4,82,0.00,,,0.00,Rainwise IP-100,2013-10-15 04:17:00,
2013-10-15 00:18:00,55.7,50.0,30.14,ESE,112,4.4,4.4,82,0.00,,,0.00,Rainwise IP-100,2013-10-15 04:18:00,
2013-10-15 00:19:00,55.7,50.0,30.14,ESE,112,4.0,4.0,82,0.00,,,0.00,Rainwise IP-100,2013-10-15 04:19:00,
2013-10-15 00:22:00,55.7,50.0,30.14,ESE,112,3.5,4.0,82,0.00,,,0.00,Rainwise IP-100,2013-10-15 04:22:00,
2013-10-15 00:23:00,55.7,50.0,30.14,ESE,112,3.5,4.0,82,0.00,,,0.00,Rainwise IP-100,2013-10-15 04:23:00,
2013-10-15 00:24:00,55.7,50.0,30.14,ESE,112,3.0,4.0,82,0.00,,,0.00,Rainwise IP-100,2013-10-15 04:24:00,
2013-10-15 00:27:00,55.6,50.0,30.14,ESE,112,3.5,4.0,83,0.00,,,0.00,Rainwise IP-100,2013-10-15 04:27:00,
2013-10-15 00:28:00,55.6,50.0,30.14,ESE,112,3.5,3.5,83,0.00,,,0.00,Rainwise IP-100,2013-10-15 04:28:00,
2013-10-15 00:29:00,55.6,50.0,30.14,ESE,112,3.3,3.3,83,0.00,,,0.00,Rainwise IP-100,2013-10-15 04:29:00,
2013-10-15 00:30:00,55.6,50.0,30.15,ESE,112,3.5,3.5,83,0.00,,,0.00,Rainwise IP-100,2013-10-15 04:30:00,
2013-10-15 00:33:00,55.6,50.0,30.14,ESE,112,2.8,3.0,83,0.00,,,0.00,Rainwise IP-100,2013-10-15 04:33:00,
2013-10-15 00:34:00,55.5,50.0,30.14,ESE,112,3.0,3.0,83,0.00,,,0.00,Rainwise IP-100,2013-10-15 04:34:00,
2013-10-15 00:36:00,55.5,51.0,30.14,ESE,112,3.7,4.0,84,0.00,,,0.00,Rainwise IP-100,2013-10-15 04:36:00,
2013-10-15 00:38:00,55.5,51.0,30.14,ESE,112,3.5,4.0,84,0.00,,,0.00,Rainwise IP-100,2013-10-15 04:38:00,
2013-10-15 00:39:00,55.5,51.0,30.14,ESE,112,3.5,4.0,84,0.00,,,0.00,Rainwise IP-100,2013-10-15 04:39:00,
2013-10-15 00:40:00,55.5,51.0,30.14,ESE,112,3.7,4.0,84,0.00,,,0.00,Rainwise IP-100,2013-10-15 04:40:00,
2013-10-15 00:41:00,55.5,51.0,30.14,ESE,112,3.7,4.0,84,0.00,,,0.00,Rainwise IP-100,2013-10-15 04:41:00,
2013-10-15 00:43:00,55.5,51.0,30.14,ESE,112,3.0,4.0,84,0.00,,,0.00,Rainwise IP-100,2013-10-15 04:43:00,
2013-10-15 00:44:00,55.4,50.0,30.14,ESE,112,3.7,4.0,85,0.00,,,0.00,Rainwise IP-100,2013-10-15 04:44:00,
2013-10-15 00:45:00,55.4,50.0,30.14,ESE,112,4.0,4.0,85,0.00,,,0.00,Rainwise IP-100,2013-10-15 04:45:00,
2013-10-15 00:46:00,55.5,51.0,30.14,ESE,112,3.7,4.0,85,0.00,,,0.00,Rainwise IP-100,2013-10-15 04:46:00,
2013-10-15 00:47:00,55.5,51.0,30.14,ESE,112,4.0,4.0,85,0.00,,,0.00,Rainwise IP-100,2013-10-15 04:47:00,
2013-10-15 00:48:00,55.5,51.0,30.14,ESE,112,3.7,4.0,85,0.00,,,0.00,Rainwise IP-100,2013-10-15 04:48:00,
2013-10-15 00:49:00,55.5,51.0,30.14,ESE,112,3.7,4.0,85,0.00,,,0.00,Rainwise IP-100,2013-10-15 04:49:00,
2013-10-15 00:50:00,55.5,51.0,30.14,ESE,112,3.5,4.0,85,0.00,,,0.00,Rainwise IP-100,2013-10-15 04:50:00,
2013-10-15 00:51:00,55.5,51.0,30.14,ESE,112,3.0,4.0,85,0.00,,,0.00,Rainwise IP-100,2013-10-15 04:51:00,
2013-10-15 00:53:00,55.6,51.0,30.14,ESE,112,2.8,4.0,85,0.00,,,0.00,Rainwise IP-100,2013-10-15 04:53:00,
2013-10-15 00:55:00,55.6,52.0,30.14,ESE,112,2.6,4.0,86,0.00,,,0.00,Rainwise IP-100,2013-10-15 04:55:00,
2013-10-15 00:56:00,55.6,52.0,30.14,ESE,112,2.3,4.0,86,0.00,,,0.00,Rainwise IP-100,2013-10-15 04:56:00,
2013-10-15 00:57:00,55.6,52.0,30.14,ESE,112,2.3,3.0,86,0.00,,,0.00,Rainwise IP-100,2013-10-15 04:57:00,
2013-10-15 00:58:00,55.5,52.0,30.14,ESE,112,2.6,3.0,86,0.00,,,0.00,Rainwise IP-100,2013-10-15 04:58:00,
2013-10-15 00:59:00,55.5,52.0,30.14,ESE,112,2.3,2.3,86,0.00,,,0.00,Rainwise IP-100,2013-10-15 04:59:00,
2013-10-15 01:00:00,55.5,52.0,30.14,ESE,112,1.9,2.0,86,0.00,,,0.00,Rainwise IP-100,2013-10-15 05:00:00,
2013-10-15 01:01:00,55.5,52.0,30.14,ESE,112,1.9,2.0,86,0.00,,,0.00,Rainwise IP-100,2013-10-15 05:01:00,
2013-10-15 01:03:00,55.5,52.0,30.13,ESE,112,1.6,2.0,86,0.00,,,0.00,Rainwise IP-100,2013-10-15 05:03:00,
2013-10-15 01:04:00,55.5,52.0,30.14,East,90,2.8,2.8,86,0.00,,,0.00,Rainwise IP-100,2013-10-15 05:04:00,
2013-10-15 01:05:00,55.5,52.0,30.14,East,90,2.6,3.0,86,0.00,,,0.00,Rainwise IP-100,2013-10-15 05:05:00,
2013-10-15 01:06:00,55.5,52.0,30.14,East,90,2.3,3.0,86,0.00,,,0.00,Rainwise IP-100,2013-10-15 05:06:00,
2013-10-15 01:07:00,55.5,52.0,30.14,East,90,2.3,3.0,86,0.00,,,0.00,Rainwise IP-100,2013-10-15 05:07:00,
2013-10-15 01:08:00,55.5,52.0,30.14,East,90,2.8,3.0,86,0.00,,,0.00,Rainwise IP-100,2013-10-15 05:08:00,
2013-10-15 01:09:00,55.5,52.0,30.14,East,90,3.0,3.0,86,0.00,,,0.00,Rainwise IP-100,2013-10-15 05:09:00,
2013-10-15 01:11:00,55.5,52.0,30.13,East,90,3.3,3.3,86,0.00,,,0.00,Rainwise IP-100,2013-10-15 05:11:00,
2013-10-15 01:12:00,55.5,52.0,30.14,East,90,3.0,3.0,86,0.00,,,0.00,Rainwise IP-100,2013-10-15 05:12:00,
2013-10-15 01:14:00,55.5,52.0,30.14,East,90,3.0,3.0,86,0.00,,,0.00,Rainwise IP-100,2013-10-15 05:14:00,
2013-10-15 01:15:00,55.5,52.0,30.14,East,90,3.3,3.3,86,0.00,,,0.00,Rainwise IP-100,2013-10-15 05:15:00,
2013-10-15 01:16:00,55.5,52.0,30.14,East,90,2.6,3.0,86,0.00,,,0.00,Rainwise IP-100,2013-10-15 05:16:00,
2013-10-15 01:17:00,55.5,52.0,30.13,East,90,2.6,3.0,86,0.00,,,0.00,Rainwise IP-100,2013-10-15 05:17:00,
2013-10-15 01:19:00,55.5,52.0,30.13,East,90,1.9,3.0,86,0.00,,,0.00,Rainwise IP-100,2013-10-15 05:19:00,
2013-10-15 01:20:00,55.5,52.0,30.13,East,90,2.3,3.0,86,0.00,,,0.00,Rainwise IP-100,2013-10-15 05:20:00,
2013-10-15 01:21:00,55.6,52.0,30.14,East,90,1.9,3.0,86,0.00,,,0.00,Rainwise IP-100,2013-10-15 05:21:00,
2013-10-15 01:22:00,55.6,52.0,30.14,East,90,1.6,2.0,86,0.00,,,0.00,Rainwise IP-100,2013-10-15 05:22:00,
2013-10-15 01:25:00,55.6,52.0,30.13,East,90,1.4,2.0,86,0.00,,,0.00,Rainwise IP-100,2013-10-15 05:25:00,
2013-10-15 01:26:00,55.7,52.0,30.14,East,90,1.6,1.6,86,0.00,,,0.00,Rainwise IP-100,2013-10-15 05:26:00,
2013-10-15 01:27:00,55.7,52.0,30.14,East,90,1.9,1.9,86,0.00,,,0.00,Rainwise IP-100,2013-10-15 05:27:00,
2013-10-15 01:28:00,55.7,52.0,30.14,East,90,1.6,1.6,86,0.00,,,0.00,Rainwise IP-100,2013-10-15 05:28:00,
2013-10-15 01:31:00,55.6,52.0,30.14,East,90,1.6,1.6,86,0.00,,,0.00,Rainwise IP-100,2013-10-15 05:31:00,
2013-10-15 01:32:00,55.6,52.0,30.14,East,90,1.6,1.6,86,0.00,,,0.00,Rainwise IP-100,2013-10-15 05:32:00,
2013-10-15 01:33:00,55.5,52.0,30.14,ENE,67,2.6,2.6,86,0.00,,,0.00,Rainwise IP-100,2013-10-15 05:33:00,
2013-10-15 01:36:00,55.1,51.0,30.13,ENE,67,2.6,3.0,86,0.00,,,0.00,Rainwise IP-100,2013-10-15 05:36:00,
2013-10-15 01:38:00,54.9,51.0,30.13,NE,45,2.8,3.0,86,0.00,,,0.00,Rainwise IP-100,2013-10-15 05:38:00,
2013-10-15 01:39:00,54.9,51.0,30.13,NE,45,3.3,3.3,86,0.00,,,0.00,Rainwise IP-100,2013-10-15 05:39:00,
2013-10-15 01:41:00,54.7,50.0,30.14,NE,45,2.1,3.0,86,0.00,,,0.00,Rainwise IP-100,2013-10-15 05:41:00,
2013-10-15 01:43:00,54.7,50.0,30.13,NE,45,1.4,3.0,87,0.00,,,0.00,Rainwise IP-100,2013-10-15 05:43:00,
2013-10-15 01:44:00,54.7,50.0,30.13,NE,45,1.2,3.0,87,0.00,,,0.00,Rainwise IP-100,2013-10-15 05:44:00,
2013-10-15 01:46:00,54.8,50.0,30.13,NE,45,0.0,2.0,87,0.00,,,0.00,Rainwise IP-100,2013-10-15 05:46:00,
2013-10-15 01:47:00,54.8,50.0,30.13,NE,45,0.0,2.0,87,0.00,,,0.00,Rainwise IP-100,2013-10-15 05:47:00,
2013-10-15 01:49:00,54.7,50.0,30.14,NE,45,0.0,1.0,87,0.00,,,0.00,Rainwise IP-100,2013-10-15 05:49:00,
2013-10-15 01:50:00,54.7,50.0,30.13,NNE,22,1.9,2.0,87,0.00,,,0.00,Rainwise IP-100,2013-10-15 05:50:00,
2013-10-15 01:51:00,54.6,50.0,30.13,NNE,22,3.3,3.3,87,0.00,,,0.00,Rainwise IP-100,2013-10-15 05:51:00,
2013-10-15 01:52:00,54.6,50.0,30.13,NNE,22,3.7,3.7,87,0.00,,,0.00,Rainwise IP-100,2013-10-15 05:52:00,
2013-10-15 01:54:00,54.5,50.0,30.14,North,360,4.2,4.2,86,0.00,,,0.00,Rainwise IP-100,2013-10-15 05:54:00,
2013-10-15 01:55:00,54.5,50.0,30.14,North,360,4.2,4.2,86,0.00,,,0.00,Rainwise IP-100,2013-10-15 05:55:00,
2013-10-15 01:56:00,54.6,50.0,30.13,North,360,3.5,4.0,86,0.00,,,0.00,Rainwise IP-100,2013-10-15 05:56:00,
2013-10-15 01:58:00,54.6,50.0,30.13,North,360,3.0,4.0,85,0.00,,,0.00,Rainwise IP-100,2013-10-15 05:58:00,
2013-10-15 01:59:00,54.6,50.0,30.13,North,360,3.3,4.0,85,0.00,,,0.00,Rainwise IP-100,2013-10-15 05:59:00,
2013-10-15 02:00:00,54.7,50.0,30.14,North,360,3.3,4.0,85,0.00,,,0.00,Rainwise IP-100,2013-10-15 06:00:00,
2013-10-15 02:01:00,54.7,50.0,30.13,North,360,2.8,4.0,85,0.00,,,0.00,Rainwise IP-100,2013-10-15 06:01:00,
2013-10-15 02:02:00,54.7,50.0,30.14,North,360,2.6,3.0,85,0.00,,,0.00,Rainwise IP-100,2013-10-15 06:02:00,
2013-10-15 02:03:00,54.7,50.0,30.13,North,360,2.6,3.0,85,0.00,,,0.00,Rainwise IP-100,2013-10-15 06:03:00,
2013-10-15 02:04:00,54.7,50.0,30.14,North,360,2.3,3.0,85,0.00,,,0.00,Rainwise IP-100,2013-10-15 06:04:00,
2013-10-15 02:05:00,54.6,50.0,30.14,North,360,2.1,3.0,85,0.00,,,0.00,Rainwise IP-100,2013-10-15 06:05:00,
2013-10-15 02:07:00,54.6,50.0,30.13,North,360,1.4,3.0,85,0.00,,,0.00,Rainwise IP-100,2013-10-15 06:07:00,
2013-10-15 02:08:00,54.6,50.0,30.14,North,360,0.0,3.0,85,0.00,,,0.00,Rainwise IP-100,2013-10-15 06:08:00,
2013-10-15 02:09:00,54.6,50.0,30.14,North,360,1.2,2.0,85,0.00,,,0.00,Rainwise IP-100,2013-10-15 06:09:00,
2013-10-15 02:10:00,54.6,50.0,30.14,North,360,0.0,2.0,85,0.00,,,0.00,Rainwise IP-100,2013-10-15 06:10:00,
2013-10-15 02:12:00,54.6,50.0,30.14,North,360,1.6,1.6,85,0.00,,,0.00,Rainwise IP-100,2013-10-15 06:12:00,
2013-10-15 02:13:00,54.6,50.0,30.13,North,360,1.2,1.2,85,0.00,,,0.00,Rainwise IP-100,2013-10-15 06:13:00,
2013-10-15 02:14:00,54.7,50.0,30.13,North,360,1.2,1.2,85,0.00,,,0.00,Rainwise IP-100,2013-10-15 06:14:00,
2013-10-15 02:15:00,54.7,50.0,30.13,North,360,0.0,1.0,85,0.00,,,0.00,Rainwise IP-100,2013-10-15 06:15:00,
2013-10-15 02:17:00,54.7,50.0,30.13,North,360,0.0,1.0,85,0.00,,,0.00,Rainwise IP-100,2013-10-15 06:17:00,
2013-10-15 02:18:00,54.9,50.0,30.13,North,360,0.0,1.0,85,0.00,,,0.00,Rainwise IP-100,2013-10-15 06:18:00,
2013-10-15 02:19:00,54.9,50.0,30.13,North,360,1.4,1.4,85,0.00,,,0.00,Rainwise IP-100,2013-10-15 06:19:00,
2013-10-15 02:20:00,54.9,50.0,30.13,North,360,1.6,1.6,85,0.00,,,0.00,Rainwise IP-100,2013-10-15 06:20:00,
2013-10-15 02:21:00,54.9,50.0,30.13,North,360,1.6,1.6,85,0.00,,,0.00,Rainwise IP-100,2013-10-15 06:21:00,
2013-10-15 02:22:00,55.0,51.0,30.13,North,360,1.9,1.9,86,0.00,,,0.00,Rainwise IP-100,2013-10-15 06:22:00,
2013-10-15 02:24:00,55.1,51.0,30.13,North,360,2.1,2.1,86,0.00,,,0.00,Rainwise IP-100,2013-10-15 06:24:00,
2013-10-15 02:25:00,55.1,51.0,30.13,North,360,2.1,2.1,86,0.00,,,0.00,Rainwise IP-100,2013-10-15 06:25:00,
2013-10-15 02:26:00,55.2,51.0,30.13,North,360,2.1,2.1,86,0.00,,,0.00,Rainwise IP-100,2013-10-15 06:26:00,
2013-10-15 02:28:00,55.2,51.0,30.13,North,360,2.1,2.1,86,0.00,,,0.00,Rainwise IP-100,2013-10-15 06:28:00,
2013-10-15 02:30:00,55.3,51.0,30.13,North,360,1.9,2.0,86,0.00,,,0.00,Rainwise IP-100,2013-10-15 06:30:00,
2013-10-15 02:31:00,55.3,51.0,30.12,North,360,1.9,2.0,86,0.00,,,0.00,Rainwise IP-100,2013-10-15 06:31:00,
2013-10-15 02:32:00,55.3,51.0,30.12,North,360,1.4,2.0,86,0.00,,,0.00,Rainwise IP-100,2013-10-15 06:32:00,
2013-10-15 02:33:00,55.3,51.0,30.12,North,360,1.4,2.0,86,0.00,,,0.00,Rainwise IP-100,2013-10-15 06:33:00,
2013-10-15 02:35:00,55.2,51.0,30.12,North,360,1.2,2.0,86,0.00,,,0.00,Rainwise IP-100,2013-10-15 06:35:00,
2013-10-15 02:36:00,55.2,51.0,30.13,North,360,1.4,1.4,86,0.00,,,0.00,Rainwise IP-100,2013-10-15 06:36:00,
2013-10-15 02:37:00,55.2,51.0,30.12,North,360,1.6,1.6,86,0.00,,,0.00,Rainwise IP-100,2013-10-15 06:37:00,
2013-10-15 02:39:00,55.2,51.0,30.12,North,360,1.6,1.6,86,0.00,,,0.00,Rainwise IP-100,2013-10-15 06:39:00,
2013-10-15 02:40:00,55.1,51.0,30.13,North,360,1.6,1.6,86,0.00,,,0.00,Rainwise IP-100,2013-10-15 06:40:00,
2013-10-15 02:41:00,55.1,51.0,30.13,North,360,1.4,1.4,86,0.00,,,0.00,Rainwise IP-100,2013-10-15 06:41:00,
2013-10-15 02:42:00,55.1,51.0,30.12,North,360,1.2,1.2,86,0.00,,,0.00,Rainwise IP-100,2013-10-15 06:42:00,
2013-10-15 02:43:00,55.1,51.0,30.12,North,360,0.0,1.0,86,0.00,,,0.00,Rainwise IP-100,2013-10-15 06:43:00,
2013-10-15 02:46:00,55.1,51.0,30.12,North,360,1.4,1.4,86,0.00,,,0.00,Rainwise IP-100,2013-10-15 06:46:00,
2013-10-15 02:47:00,55.1,51.0,30.12,North,360,1.2,1.2,86,0.00,,,0.00,Rainwise IP-100,2013-10-15 06:47:00,
2013-10-15 02:48:00,55.1,51.0,30.11,North,360,1.2,1.2,87,0.00,,,0.00,Rainwise IP-100,2013-10-15 06:48:00,
2013-10-15 02:51:00,55.1,51.0,30.12,North,360,0.0,1.0,87,0.00,,,0.00,Rainwise IP-100,2013-10-15 06:51:00,
2013-10-15 02:53:00,55.0,51.0,30.12,North,360,1.4,1.4,87,0.00,,,0.00,Rainwise IP-100,2013-10-15 06:53:00,
2013-10-15 02:54:00,55.0,51.0,30.12,North,360,1.9,1.9,87,0.00,,,0.00,Rainwise IP-100,2013-10-15 06:54:00,
2013-10-15 02:56:00,55.0,51.0,30.12,North,360,1.9,1.9,87,0.00,,,0.00,Rainwise IP-100,2013-10-15 06:56:00,
2013-10-15 02:58:00,55.0,52.0,30.12,North,360,2.8,2.8,88,0.00,,,0.00,Rainwise IP-100,2013-10-15 06:58:00,
2013-10-15 02:59:00,55.0,52.0,30.12,North,360,2.8,2.8,88,0.00,,,0.00,Rainwise IP-100,2013-10-15 06:59:00,
2013-10-15 03:01:00,55.0,52.0,30.11,North,360,2.3,2.3,88,0.00,,,0.00,Rainwise IP-100,2013-10-15 07:01:00,
2013-10-15 03:02:00,55.0,52.0,30.11,North,360,2.3,2.3,88,0.00,,,0.00,Rainwise IP-100,2013-10-15 07:02:00,
2013-10-15 03:03:00,55.0,52.0,30.11,North,360,2.3,2.3,88,0.00,,,0.00,Rainwise IP-100,2013-10-15 07:03:00,
2013-10-15 03:04:00,55.0,52.0,30.11,North,360,2.6,2.6,88,0.00,,,0.00,Rainwise IP-100,2013-10-15 07:04:00,
2013-10-15 03:05:00,55.0,52.0,30.11,North,360,2.8,2.8,88,0.00,,,0.00,Rainwise IP-100,2013-10-15 07:05:00,
2013-10-15 03:06:00,55.0,52.0,30.12,North,360,2.6,2.6,88,0.00,,,0.00,Rainwise IP-100,2013-10-15 07:06:00,
2013-10-15 03:08:00,55.0,52.0,30.12,North,360,2.6,2.6,88,0.00,,,0.00,Rainwise IP-100,2013-10-15 07:08:00,
2013-10-15 03:09:00,55.0,52.0,30.11,North,360,2.3,2.3,88,0.00,,,0.00,Rainwise IP-100,2013-10-15 07:09:00,
2013-10-15 03:10:00,55.0,52.0,30.12,North,360,1.9,2.0,88,0.00,,,0.00,Rainwise IP-100,2013-10-15 07:10:00,
2013-10-15 03:12:00,55.0,52.0,30.11,North,360,1.9,2.0,88,0.00,,,0.00,Rainwise IP-100,2013-10-15 07:12:00,
2013-10-15 03:13:00,55.1,52.0,30.11,North,360,1.9,2.0,88,0.00,,,0.00,Rainwise IP-100,2013-10-15 07:13:00,
2013-10-15 03:15:00,55.1,52.0,30.11,North,360,2.3,2.3,88,0.00,,,0.00,Rainwise IP-100,2013-10-15 07:15:00,
2013-10-15 03:16:00,55.0,52.0,30.11,North,360,2.6,2.6,88,0.00,,,0.00,Rainwise IP-100,2013-10-15 07:16:00,
2013-10-15 03:17:00,55.1,52.0,30.11,North,360,2.8,2.8,88,0.00,,,0.00,Rainwise IP-100,2013-10-15 07:17:00,
2013-10-15 03:18:00,55.1,52.0,30.11,North,360,3.3,3.3,88,0.00,,,0.00,Rainwise IP-100,2013-10-15 07:18:00,
2013-10-15 03:19:00,55.1,52.0,30.11,North,360,3.3,3.3,89,0.00,,,0.00,Rainwise IP-100,2013-10-15 07:19:00,
2013-10-15 03:20:00,55.1,52.0,30.11,North,360,3.3,3.3,89,0.00,,,0.00,Rainwise IP-100,2013-10-15 07:20:00,
2013-10-15 03:21:00,55.1,52.0,30.11,North,360,3.5,3.5,89,0.00,,,0.00,Rainwise IP-100,2013-10-15 07:21:00,
2013-10-15 03:22:00,55.1,52.0,30.11,North,360,3.5,3.5,89,0.00,,,0.00,Rainwise IP-100,2013-10-15 07:22:00,
2013-10-15 03:23:00,55.1,52.0,30.11,North,360,3.5,3.5,89,0.00,,,0.00,Rainwise IP-100,2013-10-15 07:23:00,
2013-10-15 03:24:00,55.1,52.0,30.11,North,360,3.5,3.5,89,0.00,,,0.00,Rainwise IP-100,2013-10-15 07:24:00,
2013-10-15 03:25:00,55.1,52.0,30.11,North,360,3.3,3.3,89,0.00,,,0.00,Rainwise IP-100,2013-10-15 07:25:00,
2013-10-15 03:27:00,55.1,52.0,30.11,North,360,3.7,3.7,89,0.00,,,0.00,Rainwise IP-100,2013-10-15 07:27:00,
2013-10-15 03:28:00,55.0,52.0,30.11,North,360,3.5,3.5,89,0.00,,,0.00,Rainwise IP-100,2013-10-15 07:28:00,
2013-10-15 03:30:00,55.0,52.0,30.11,North,360,2.6,3.0,89,0.00,,,0.00,Rainwise IP-100,2013-10-15 07:30:00,
2013-10-15 03:32:00,55.0,52.0,30.11,North,360,2.1,3.0,89,0.00,,,0.00,Rainwise IP-100,2013-10-15 07:32:00,
2013-10-15 03:33:00,55.0,52.0,30.11,North,360,1.9,3.0,89,0.00,,,0.00,Rainwise IP-100,2013-10-15 07:33:00,
2013-10-15 03:34:00,54.9,52.0,30.11,North,360,1.9,3.0,89,0.00,,,0.00,Rainwise IP-100,2013-10-15 07:34:00,
2013-10-15 03:35:00,55.0,52.0,30.11,North,360,2.1,3.0,89,0.00,,,0.00,Rainwise IP-100,2013-10-15 07:35:00,
2013-10-15 03:37:00,55.0,52.0,30.11,North,360,3.3,3.3,89,0.00,,,0.00,Rainwise IP-100,2013-10-15 07:37:00,
2013-10-15 03:38:00,54.9,52.0,30.11,North,360,3.0,3.0,89,0.00,,,0.00,Rainwise IP-100,2013-10-15 07:38:00,
2013-10-15 03:39:00,54.9,52.0,30.11,North,360,3.0,3.0,89,0.00,,,0.00,Rainwise IP-100,2013-10-15 07:39:00,
2013-10-15 03:40:00,54.9,52.0,30.11,North,360,3.3,3.3,89,0.00,,,0.00,Rainwise IP-100,2013-10-15 07:40:00,
2013-10-15 03:43:00,55.0,52.0,30.11,North,360,3.3,3.3,89,0.00,,,0.00,Rainwise IP-100,2013-10-15 07:43:00,
2013-10-15 03:44:00,55.0,52.0,30.11,North,360,3.3,3.3,89,0.00,,,0.00,Rainwise IP-100,2013-10-15 07:44:00,
2013-10-15 03:45:00,55.0,52.0,30.11,North,360,3.3,3.3,89,0.00,,,0.00,Rainwise IP-100,2013-10-15 07:45:00,
2013-10-15 03:46:00,55.0,52.0,30.11,North,360,3.3,3.3,89,0.00,,,0.00,Rainwise IP-100,2013-10-15 07:46:00,
2013-10-15 03:49:00,55.0,52.0,30.11,North,360,4.0,4.0,89,0.00,,,0.00,Rainwise IP-100,2013-10-15 07:49:00,
2013-10-15 03:50:00,55.0,52.0,30.11,North,360,3.7,4.0,89,0.00,,,0.00,Rainwise IP-100,2013-10-15 07:50:00,
2013-10-15 03:51:00,55.0,52.0,30.11,North,360,3.7,4.0,89,0.00,,,0.00,Rainwise IP-100,2013-10-15 07:51:00,
2013-10-15 03:52:00,54.9,52.0,30.11,North,360,3.5,4.0,89,0.00,,,0.00,Rainwise IP-100,2013-10-15 07:52:00,
2013-10-15 03:54:00,54.9,52.0,30.11,North,360,4.0,4.0,89,0.00,,,0.00,Rainwise IP-100,2013-10-15 07:54:00,
2013-10-15 03:55:00,54.9,52.0,30.11,North,360,4.0,4.0,89,0.00,,,0.00,Rainwise IP-100,2013-10-15 07:55:00,
2013-10-15 03:56:00,54.9,52.0,30.11,North,360,4.2,4.2,89,0.00,,,0.00,Rainwise IP-100,2013-10-15 07:56:00,
2013-10-15 03:59:00,54.8,52.0,30.11,North,360,4.9,4.9,90,0.00,,,0.00,Rainwise IP-100,2013-10-15 07:59:00,
2013-10-15 04:00:00,54.9,53.0,30.11,North,360,4.9,4.9,90,0.00,,,0.00,Rainwise IP-100,2013-10-15 08:00:00,
2013-10-15 04:01:00,54.9,53.0,30.11,North,360,4.7,5.0,90,0.00,,,0.00,Rainwise IP-100,2013-10-15 08:01:00,
2013-10-15 04:04:00,54.8,52.0,30.10,North,360,5.6,5.6,90,0.00,,,0.00,Rainwise IP-100,2013-10-15 08:04:00,
2013-10-15 04:05:00,54.8,52.0,30.11,North,360,5.6,5.6,90,0.00,,,0.00,Rainwise IP-100,2013-10-15 08:05:00,
2013-10-15 04:06:00,54.8,52.0,30.11,North,360,5.6,5.6,90,0.00,,,0.00,Rainwise IP-100,2013-10-15 08:06:00,
2013-10-15 04:09:00,54.7,52.0,30.11,NNE,22,5.6,5.6,90,0.00,,,0.00,Rainwise IP-100,2013-10-15 08:09:00,
2013-10-15 04:10:00,54.7,52.0,30.10,NNE,22,5.8,5.8,90,0.00,,,0.00,Rainwise IP-100,2013-10-15 08:10:00,
2013-10-15 04:11:00,54.7,52.0,30.10,NNE,22,5.6,5.6,90,0.00,,,0.00,Rainwise IP-100,2013-10-15 08:11:00,
2013-10-15 04:12:00,54.7,52.0,30.10,NNE,22,5.4,5.4,90,0.00,,,0.00,Rainwise IP-100,2013-10-15 08:12:00,
2013-10-15 04:14:00,54.6,52.0,30.11,NNE,22,4.7,5.0,90,0.00,,,0.00,Rainwise IP-100,2013-10-15 08:14:00,
2013-10-15 04:15:00,54.5,52.0,30.11,NNE,22,4.7,5.0,91,0.00,,,0.00,Rainwise IP-100,2013-10-15 08:15:00,
2013-10-15 04:16:00,54.4,52.0,30.10,NNE,22,4.7,5.0,91,0.00,,,0.00,Rainwise IP-100,2013-10-15 08:16:00,
2013-10-15 04:17:00,54.4,52.0,30.10,NNE,22,4.7,5.0,91,0.00,,,0.00,Rainwise IP-100,2013-10-15 08:17:00,
2013-10-15 04:19:00,54.3,51.0,30.11,NNE,22,4.2,4.2,91,0.00,,,0.00,Rainwise IP-100,2013-10-15 08:19:00,
2013-10-15 04:21:00,54.2,51.0,30.10,NNE,22,5.1,5.1,91,0.00,,,0.00,Rainwise IP-100,2013-10-15 08:21:00,
2013-10-15 04:22:00,54.2,51.0,30.10,NNE,22,4.7,5.0,91,0.00,,,0.00,Rainwise IP-100,2013-10-15 08:22:00,
2013-10-15 04:24:00,54.2,51.0,30.11,NNE,22,4.7,5.0,91,0.00,,,0.00,Rainwise IP-100,2013-10-15 08:24:00,
2013-10-15 04:26:00,54.2,51.0,30.10,NNE,22,4.4,5.0,91,0.00,,,0.00,Rainwise IP-100,2013-10-15 08:26:00,
2013-10-15 04:27:00,54.2,52.0,30.11,NNE,22,4.4,5.0,92,0.00,,,0.00,Rainwise IP-100,2013-10-15 08:27:00,
2013-10-15 04:28:00,54.2,52.0,30.10,NE,45,4.4,5.0,92,0.00,,,0.00,Rainwise IP-100,2013-10-15 08:28:00,
2013-10-15 04:30:00,54.2,52.0,30.10,NE,45,4.2,5.0,92,0.00,,,0.00,Rainwise IP-100,2013-10-15 08:30:00,
2013-10-15 04:31:00,54.2,52.0,30.10,NE,45,3.3,5.0,92,0.00,,,0.00,Rainwise IP-100,2013-10-15 08:31:00,
2013-10-15 04:32:00,54.2,52.0,30.11,NE,45,3.3,5.0,92,0.00,,,0.00,Rainwise IP-100,2013-10-15 08:32:00,
2013-10-15 04:33:00,54.2,52.0,30.10,NE,45,3.7,5.0,92,0.00,,,0.00,Rainwise IP-100,2013-10-15 08:33:00,
2013-10-15 04:35:00,54.2,52.0,30.11,NE,45,4.2,4.2,92,0.00,,,0.00,Rainwise IP-100,2013-10-15 08:35:00,
2013-10-15 04:37:00,54.2,52.0,30.10,NE,45,4.2,4.2,92,0.00,,,0.00,Rainwise IP-100,2013-10-15 08:37:00,
2013-10-15 04:38:00,54.2,52.0,30.11,NE,45,4.7,4.7,92,0.00,,,0.00,Rainwise IP-100,2013-10-15 08:38:00,
2013-10-15 04:39:00,54.2,52.0,30.11,NE,45,5.1,5.1,92,0.00,,,0.00,Rainwise IP-100,2013-10-15 08:39:00,
2013-10-15 04:40:00,54.2,52.0,30.11,NE,45,4.4,5.0,92,0.00,,,0.00,Rainwise IP-100,2013-10-15 08:40:00,
2013-10-15 04:42:00,54.3,52.0,30.10,NE,45,4.4,5.0,92,0.00,,,0.00,Rainwise IP-100,2013-10-15 08:42:00,
2013-10-15 04:44:00,54.3,52.0,30.10,NE,45,4.7,5.0,92,0.00,,,0.00,Rainwise IP-100,2013-10-15 08:44:00,
2013-10-15 04:45:00,54.3,52.0,30.11,NE,45,5.1,5.1,92,0.00,,,0.00,Rainwise IP-100,2013-10-15 08:45:00,
2013-10-15 04:48:00,54.3,52.0,30.11,NE,45,4.4,5.0,92,0.00,,,0.00,Rainwise IP-100,2013-10-15 08:48:00,
2013-10-15 04:49:00,54.3,52.0,30.10,NE,45,4.9,5.0,92,0.00,,,0.00,Rainwise IP-100,2013-10-15 08:49:00,
2013-10-15 04:50:00,54.3,52.0,30.11,NE,45,5.1,5.1,92,0.00,,,0.00,Rainwise IP-100,2013-10-15 08:50:00,
2013-10-15 04:51:00,54.3,52.0,30.11,NE,45,5.1,5.1,92,0.00,,,0.00,Rainwise IP-100,2013-10-15 08:51:00,
2013-10-15 04:54:00,54.2,52.0,30.11,NE,45,5.4,5.4,92,0.00,,,0.00,Rainwise IP-100,2013-10-15 08:54:00,
2013-10-15 04:55:00,54.2,52.0,30.10,NE,45,5.8,6.0,92,0.00,,,0.00,Rainwise IP-100,2013-10-15 08:55:00,
2013-10-15 04:56:00,54.2,52.0,30.11,NE,45,5.6,6.0,92,0.00,,,0.00,Rainwise IP-100,2013-10-15 08:56:00,
2013-10-15 04:57:00,54.2,52.0,30.11,NE,45,5.6,6.0,92,0.00,,,0.00,Rainwise IP-100,2013-10-15 08:57:00,
2013-10-15 04:59:00,54.2,51.0,30.11,NE,45,4.9,6.0,91,0.00,,,0.00,Rainwise IP-100,2013-10-15 08:59:00,
2013-10-15 05:00:00,54.2,51.0,30.11,NE,45,5.1,6.0,91,0.00,,,0.00,Rainwise IP-100,2013-10-15 09:00:00,
2013-10-15 05:01:00,54.3,51.0,30.10,NE,45,5.4,6.0,91,0.00,,,0.00,Rainwise IP-100,2013-10-15 09:01:00,
2013-10-15 05:04:00,54.4,52.0,30.11,NE,45,6.5,7.0,91,0.00,,,0.00,Rainwise IP-100,2013-10-15 09:04:00,
2013-10-15 05:05:00,54.4,52.0,30.11,NE,45,6.3,7.0,91,0.00,,,0.00,Rainwise IP-100,2013-10-15 09:05:00,
2013-10-15 05:06:00,54.5,52.0,30.11,NE,45,5.6,7.0,91,0.00,,,0.00,Rainwise IP-100,2013-10-15 09:06:00,
2013-10-15 05:07:00,54.6,52.0,30.11,NE,45,5.8,7.0,91,0.00,,,0.00,Rainwise IP-100,2013-10-15 09:07:00,
2013-10-15 05:09:00,54.6,52.0,30.11,NE,45,5.1,6.0,91,0.00,,,0.00,Rainwise IP-100,2013-10-15 09:09:00,
2013-10-15 05:10:00,54.6,52.0,30.11,NE,45,4.7,6.0,90,0.00,,,0.00,Rainwise IP-100,2013-10-15 09:10:00,
2013-10-15 05:11:00,54.7,52.0,30.11,NE,45,4.7,6.0,90,0.00,,,0.00,Rainwise IP-100,2013-10-15 09:11:00,
2013-10-15 05:12:00,54.7,52.0,30.11,NE,45,4.7,6.0,90,0.00,,,0.00,Rainwise IP-100,2013-10-15 09:12:00,
2013-10-15 05:13:00,54.7,52.0,30.11,NE,45,5.4,6.0,90,0.00,,,0.00,Rainwise IP-100,2013-10-15 09:13:00,
2013-10-15 05:15:00,54.6,52.0,30.11,NE,45,5.6,6.0,90,0.00,,,0.00,Rainwise IP-100,2013-10-15 09:15:00,
2013-10-15 05:16:00,54.5,52.0,30.11,NE,45,6.1,6.1,90,0.00,,,0.00,Rainwise IP-100,2013-10-15 09:16:00,
2013-10-15 05:17:00,54.5,52.0,30.11,NE,45,6.3,7.0,90,0.00,,,0.00,Rainwise IP-100,2013-10-15 09:17:00,
2013-10-15 05:18:00,54.5,52.0,30.11,NE,45,5.8,7.0,90,0.00,,,0.00,Rainwise IP-100,2013-10-15 09:18:00,
2013-10-15 05:20:00,54.5,52.0,30.11,NE,45,5.6,7.0,90,0.00,,,0.00,Rainwise IP-100,2013-10-15 09:20:00,
2013-10-15 05:21:00,54.5,52.0,30.11,NE,45,5.1,7.0,90,0.00,,,0.00,Rainwise IP-100,2013-10-15 09:21:00,
2013-10-15 05:22:00,54.5,52.0,30.11,NE,45,5.4,7.0,90,0.00,,,0.00,Rainwise IP-100,2013-10-15 09:22:00,
2013-10-15 05:23:00,54.4,52.0,30.11,NE,45,5.1,7.0,90,0.00,,,0.00,Rainwise IP-100,2013-10-15 09:23:00,
2013-10-15 05:24:00,54.5,52.0,30.11,NE,45,5.1,7.0,90,0.00,,,0.00,Rainwise IP-100,2013-10-15 09:24:00,
2013-10-15 05:25:00,54.5,52.0,30.11,NE,45,5.4,6.0,90,0.00,,,0.00,Rainwise IP-100,2013-10-15 09:25:00,
2013-10-15 05:27:00,54.5,52.0,30.11,NE,45,4.9,6.0,90,0.00,,,0.00,Rainwise IP-100,2013-10-15 09:27:00,
2013-10-15 05:28:00,54.5,52.0,30.11,NE,45,4.7,6.0,90,0.00,,,0.00,Rainwise IP-100,2013-10-15 09:28:00,
2013-10-15 05:30:00,54.3,51.0,30.11,NNE,22,4.0,6.0,90,0.00,,,0.00,Rainwise IP-100,2013-10-15 09:30:00,
2013-10-15 05:31:00,54.3,51.0,30.11,NE,45,6.3,6.3,90,0.00,,,0.00,Rainwise IP-100,2013-10-15 09:31:00,
2013-10-15 05:32:00,54.2,51.0,30.12,NE,45,3.5,6.0,91,0.00,,,0.00,Rainwise IP-100,2013-10-15 09:32:00,
2013-10-15 05:33:00,54.2,51.0,30.12,NE,45,2.8,6.0,91,0.00,,,0.00,Rainwise IP-100,2013-10-15 09:33:00,
2013-10-15 05:34:00,54.1,51.0,30.11,NE,45,2.3,6.0,91,0.00,,,0.00,Rainwise IP-100,2013-10-15 09:34:00,
2013-10-15 05:36:00,53.9,51.0,30.12,NE,45,2.8,6.0,91,0.00,,,0.00,Rainwise IP-100,2013-10-15 09:36:00,
2013-10-15 05:37:00,53.9,51.0,30.12,NE,45,4.0,4.0,91,0.00,,,0.00,Rainwise IP-100,2013-10-15 09:37:00,
2013-10-15 05:38:00,53.8,50.0,30.12,NE,45,5.1,5.1,91,0.00,,,0.00,Rainwise IP-100,2013-10-15 09:38:00,
2013-10-15 05:39:00,53.9,51.0,30.11,NE,45,5.6,5.6,91,0.00,,,0.00,Rainwise IP-100,2013-10-15 09:39:00,
2013-10-15 05:40:00,54.0,51.0,30.12,NE,45,4.7,5.0,91,0.00,,,0.00,Rainwise IP-100,2013-10-15 09:40:00,
2013-10-15 05:41:00,54.0,51.0,30.12,NE,45,5.4,5.4,91,0.00,,,0.00,Rainwise IP-100,2013-10-15 09:41:00,
2013-10-15 05:43:00,54.1,51.0,30.12,NE,45,5.8,6.0,91,0.00,,,0.00,Rainwise IP-100,2013-10-15 09:43:00,
2013-10-15 05:44:00,54.2,51.0,30.12,NE,45,5.6,6.0,91,0.00,,,0.00,Rainwise IP-100,2013-10-15 09:44:00,
2013-10-15 05:45:00,54.2,51.0,30.12,NE,45,5.8,6.0,91,0.00,,,0.00,Rainwise IP-100,2013-10-15 09:45:00,
2013-10-15 05:46:00,54.3,51.0,30.12,NE,45,6.1,6.1,91,0.00,,,0.00,Rainwise IP-100,2013-10-15 09:46:00,
2013-10-15 05:48:00,54.5,53.0,30.12,NE,45,6.8,7.0,92,0.00,,,0.00,Rainwise IP-100,2013-10-15 09:48:00,
2013-10-15 05:49:00,54.6,53.0,30.12,NE,45,6.1,7.0,92,0.00,,,0.00,Rainwise IP-100,2013-10-15 09:49:00,
2013-10-15 05:50:00,54.6,53.0,30.12,NE,45,6.1,7.0,92,0.00,,,0.00,Rainwise IP-100,2013-10-15 09:50:00,
2013-10-15 05:51:00,54.6,53.0,30.12,ENE,67,6.3,7.0,92,0.00,,,0.00,Rainwise IP-100,2013-10-15 09:51:00,
2013-10-15 05:52:00,54.6,53.0,30.12,ENE,67,6.3,7.0,92,0.00,,,0.00,Rainwise IP-100,2013-10-15 09:52:00,
2013-10-15 05:53:00,54.7,53.0,30.11,ENE,67,6.1,7.0,92,0.00,,,0.00,Rainwise IP-100,2013-10-15 09:53:00,
2013-10-15 05:55:00,54.7,53.0,30.12,ENE,67,7.9,8.0,92,0.00,,,0.00,Rainwise IP-100,2013-10-15 09:55:00,
2013-10-15 05:56:00,54.7,53.0,30.12,ENE,67,7.2,8.0,92,0.00,,,0.00,Rainwise IP-100,2013-10-15 09:56:00,
2013-10-15 05:57:00,54.7,53.0,30.11,ENE,67,6.8,8.0,92,0.00,,,0.00,Rainwise IP-100,2013-10-15 09:57:00,
2013-10-15 05:58:00,54.7,53.0,30.11,ENE,67,6.3,8.0,92,0.00,,,0.00,Rainwise IP-100,2013-10-15 09:58:00,
2013-10-15 06:01:00,54.7,53.0,30.12,ENE,67,6.8,7.0,92,0.00,,,0.00,Rainwise IP-100,2013-10-15 10:01:00,
2013-10-15 06:02:00,54.7,53.0,30.12,ENE,67,5.8,7.0,92,0.00,,,0.00,Rainwise IP-100,2013-10-15 10:02:00,
2013-10-15 06:04:00,54.7,53.0,30.12,ENE,67,5.8,7.0,92,0.00,,,0.00,Rainwise IP-100,2013-10-15 10:04:00,
2013-10-15 06:07:00,54.6,53.0,30.12,ENE,67,5.4,7.0,92,0.00,,,0.00,Rainwise IP-100,2013-10-15 10:07:00,
2013-10-15 06:08:00,54.7,53.0,30.12,ENE,67,5.6,7.0,92,0.00,,,0.00,Rainwise IP-100,2013-10-15 10:08:00,
2013-10-15 06:09:00,54.7,53.0,30.12,ENE,67,8.2,8.2,92,0.00,,,0.00,Rainwise IP-100,2013-10-15 10:09:00,
2013-10-15 06:10:00,54.7,53.0,30.12,ENE,67,7.5,8.0,92,0.00,,,0.00,Rainwise IP-100,2013-10-15 10:10:00,
2013-10-15 06:12:00,54.8,53.0,30.12,ENE,67,6.5,8.0,92,0.00,,,0.00,Rainwise IP-100,2013-10-15 10:12:00,
2013-10-15 06:13:00,54.8,53.0,30.12,ENE,67,6.1,8.0,92,0.00,,,0.00,Rainwise IP-100,2013-10-15 10:13:00,
2013-10-15 06:14:00,54.9,53.0,30.12,ENE,67,6.5,8.0,92,0.00,,,0.00,Rainwise IP-100,2013-10-15 10:14:00,
2013-10-15 06:16:00,55.1,53.0,30.12,ENE,67,6.5,8.0,92,0.00,,,0.00,Rainwise IP-100,2013-10-15 10:16:00,
2013-10-15 06:18:00,55.1,53.0,30.12,ENE,67,7.2,7.2,92,0.00,,,0.00,Rainwise IP-100,2013-10-15 10:18:00,
2013-10-15 06:19:00,55.1,53.0,30.12,ENE,67,4.0,8.0,91,0.00,,,0.00,Rainwise IP-100,2013-10-15 10:19:00,
2013-10-15 06:20:00,55.2,53.0,30.12,ENE,67,6.1,8.0,91,0.00,,,0.00,Rainwise IP-100,2013-10-15 10:20:00,
2013-10-15 06:21:00,55.2,53.0,30.12,ENE,67,7.2,8.0,91,0.00,,,0.00,Rainwise IP-100,2013-10-15 10:21:00,
2013-10-15 06:23:00,55.2,53.0,30.12,ENE,67,6.8,8.0,91,0.00,,,0.00,Rainwise IP-100,2013-10-15 10:23:00,
2013-10-15 06:25:00,55.1,53.0,30.11,ENE,67,6.3,8.0,91,0.00,,,0.00,Rainwise IP-100,2013-10-15 10:25:00,
2013-10-15 06:28:00,55.0,53.0,30.11,ENE,67,4.2,8.0,90,0.00,,,0.00,Rainwise IP-100,2013-10-15 10:28:00,
2013-10-15 06:30:00,55.0,53.0,30.12,ENE,67,6.3,7.0,90,0.00,,,0.00,Rainwise IP-100,2013-10-15 10:30:00,
2013-10-15 06:31:00,55.0,53.0,30.12,ENE,67,5.6,7.0,90,0.00,,,0.00,Rainwise IP-100,2013-10-15 10:31:00,
2013-10-15 06:33:00,55.1,53.0,30.11,ENE,67,5.4,7.0,90,0.00,,,0.00,Rainwise IP-100,2013-10-15 10:33:00,
2013-10-15 06:34:00,55.1,53.0,30.11,ENE,67,7.2,7.2,90,0.00,,,0.00,Rainwise IP-100,2013-10-15 10:34:00,
2013-10-15 06:35:00,55.1,53.0,30.11,ENE,67,6.5,7.0,90,0.00,,,0.00,Rainwise IP-100,2013-10-15 10:35:00,
2013-10-15 06:36:00,55.1,53.0,30.11,ENE,67,6.8,7.0,90,0.00,,,0.00,Rainwise IP-100,2013-10-15 10:36:00,
2013-10-15 06:39:00,55.2,53.0,30.11,ENE,67,5.6,7.0,90,0.00,,,0.00,Rainwise IP-100,2013-10-15 10:39:00,
2013-10-15 06:40:00,55.3,53.0,30.11,ENE,67,5.8,9.0,90,0.00,,,0.00,Rainwise IP-100,2013-10-15 10:40:00,
2013-10-15 06:41:00,55.3,53.0,30.11,ENE,67,5.8,9.0,90,0.00,,,0.00,Rainwise IP-100,2013-10-15 10:41:00,
2013-10-15 06:42:00,55.3,53.0,30.11,ENE,67,5.1,9.0,90,0.00,,,0.00,Rainwise IP-100,2013-10-15 10:42:00,
2013-10-15 06:44:00,55.3,53.0,30.11,ENE,67,7.0,9.0,90,0.00,,,0.00,Rainwise IP-100,2013-10-15 10:44:00,
2013-10-15 06:46:00,55.3,53.0,30.11,ENE,67,5.8,9.0,90,0.00,,,0.00,Rainwise IP-100,2013-10-15 10:46:00,
2013-10-15 06:47:00,55.3,53.0,30.11,ENE,67,7.2,9.0,90,0.00,,,0.00,Rainwise IP-100,2013-10-15 10:47:00,
2013-10-15 06:50:00,55.3,53.0,30.11,ENE,67,5.4,9.0,90,0.00,,,0.00,Rainwise IP-100,2013-10-15 10:50:00,
2013-10-15 06:51:00,55.3,53.0,30.11,ENE,67,6.1,8.0,90,0.00,,,0.00,Rainwise IP-100,2013-10-15 10:51:00,
2013-10-15 06:52:00,55.3,53.0,30.11,ENE,67,4.9,7.0,91,0.00,,,0.00,Rainwise IP-100,2013-10-15 10:52:00,
2013-10-15 06:56:00,55.3,53.0,30.11,ENE,67,7.5,8.0,91,0.00,,,0.00,Rainwise IP-100,2013-10-15 10:56:00,
2013-10-15 06:57:00,55.3,53.0,30.11,ENE,67,5.8,8.0,91,0.00,,,0.00,Rainwise IP-100,2013-10-15 10:57:00,
2013-10-15 06:58:00,55.3,53.0,30.11,ENE,67,5.8,8.0,91,0.00,,,0.00,Rainwise IP-100,2013-10-15 10:58:00,
2013-10-15 07:01:00,55.3,53.0,30.11,ENE,67,6.1,7.0,92,0.00,,,0.00,Rainwise IP-100,2013-10-15 11:01:00,
2013-10-15 07:02:00,55.3,53.0,30.11,ENE,67,5.4,7.0,92,0.00,,,0.00,Rainwise IP-100,2013-10-15 11:02:00,
2013-10-15 07:03:00,55.4,53.0,30.11,ENE,67,4.9,7.0,92,0.00,,,0.00,Rainwise IP-100,2013-10-15 11:03:00,
2013-10-15 07:04:00,55.4,53.0,30.11,ENE,67,6.1,7.0,92,0.00,,,0.00,Rainwise IP-100,2013-10-15 11:04:00,
2013-10-15 07:06:00,55.3,53.0,30.11,ENE,67,6.3,7.0,92,0.00,,,0.00,Rainwise IP-100,2013-10-15 11:06:00,
2013-10-15 07:08:00,55.3,53.0,30.11,ENE,67,5.6,7.0,92,0.00,,,0.00,Rainwise IP-100,2013-10-15 11:08:00,
2013-10-15 07:09:00,55.4,53.0,30.11,ENE,67,5.6,7.0,92,0.00,,,0.00,Rainwise IP-100,2013-10-15 11:09:00,
2013-10-15 07:10:00,55.4,53.0,30.11,ENE,67,6.5,6.5,92,0.00,,,0.00,Rainwise IP-100,2013-10-15 11:10:00,
2013-10-15 07:11:00,55.3,53.0,30.11,ENE,67,6.1,6.1,92,0.00,,,0.00,Rainwise IP-100,2013-10-15 11:11:00,
2013-10-15 07:13:00,55.3,53.0,30.11,ENE,67,5.8,7.0,92,0.00,,,0.00,Rainwise IP-100,2013-10-15 11:13:00,
2013-10-15 07:14:00,55.3,53.0,30.11,ENE,67,5.4,7.0,92,0.00,,,0.00,Rainwise IP-100,2013-10-15 11:14:00,
2013-10-15 07:15:00,55.3,53.0,30.11,ENE,67,6.3,7.0,92,0.00,,,0.00,Rainwise IP-100,2013-10-15 11:15:00,
2013-10-15 07:16:00,55.3,53.0,30.11,ENE,67,6.5,7.0,92,0.00,,,0.00,Rainwise IP-100,2013-10-15 11:16:00,
2013-10-15 07:19:00,55.3,53.0,30.11,ENE,67,5.4,7.0,93,0.00,,,0.00,Rainwise IP-100,2013-10-15 11:19:00,
2013-10-15 07:21:00,55.3,53.0,30.11,ENE,67,4.4,7.0,93,0.00,,,0.00,Rainwise IP-100,2013-10-15 11:21:00,
2013-10-15 07:22:00,55.3,53.0,30.11,ENE,67,5.8,7.0,93,0.00,,,0.00,Rainwise IP-100,2013-10-15 11:22:00,
2013-10-15 07:24:00,55.4,53.0,30.11,East,90,6.1,6.1,93,0.00,,,0.00,Rainwise IP-100,2013-10-15 11:24:00,
2013-10-15 07:25:00,55.4,53.0,30.11,East,90,6.1,7.0,93,0.00,,,0.00,Rainwise IP-100,2013-10-15 11:25:00,
2013-10-15 07:26:00,55.4,53.0,30.11,ENE,67,6.5,7.0,93,0.00,,,0.00,Rainwise IP-100,2013-10-15 11:26:00,
2013-10-15 07:27:00,55.4,53.0,30.11,ENE,67,6.3,7.0,92,0.00,,,0.00,Rainwise IP-100,2013-10-15 11:27:00,
2013-10-15 07:28:00,55.4,53.0,30.11,ENE,67,5.8,7.0,92,0.00,,,0.00,Rainwise IP-100,2013-10-15 11:28:00,
2013-10-15 07:29:00,55.4,53.0,30.11,ENE,67,6.3,7.0,92,0.00,,,0.00,Rainwise IP-100,2013-10-15 11:29:00,
2013-10-15 07:30:00,55.4,53.0,30.11,ENE,67,5.4,8.0,92,0.00,,,0.00,Rainwise IP-100,2013-10-15 11:30:00,
2013-10-15 07:31:00,55.5,53.0,30.11,ENE,67,5.8,8.0,92,0.00,,,0.00,Rainwise IP-100,2013-10-15 11:31:00,
2013-10-15 07:32:00,55.5,53.0,30.11,ENE,67,7.2,8.0,92,0.00,,,0.00,Rainwise IP-100,2013-10-15 11:32:00,
2013-10-15 07:34:00,55.6,53.0,30.11,East,90,6.1,8.0,92,0.00,,,0.00,Rainwise IP-100,2013-10-15 11:34:00,
2013-10-15 07:35:00,55.6,53.0,30.11,East,90,5.6,8.0,92,0.00,,,0.00,Rainwise IP-100,2013-10-15 11:35:00,
2013-10-15 07:38:00,55.8,53.0,30.11,East,90,7.2,8.0,92,0.00,,,0.00,Rainwise IP-100,2013-10-15 11:38:00,
2013-10-15 07:39:00,55.8,53.0,30.11,East,90,6.1,8.0,92,0.00,,,0.00,Rainwise IP-100,2013-10-15 11:39:00,
2013-10-15 07:40:00,55.8,53.0,30.11,East,90,6.1,8.0,91,0.00,,,0.00,Rainwise IP-100,2013-10-15 11:40:00,
2013-10-15 07:41:00,55.8,53.0,30.11,East,90,4.7,8.0,91,0.00,,,0.00,Rainwise IP-100,2013-10-15 11:41:00,
2013-10-15 07:43:00,55.9,53.0,30.11,East,90,5.6,8.0,91,0.00,,,0.00,Rainwise IP-100,2013-10-15 11:43:00,
2013-10-15 07:44:00,55.9,53.0,30.11,East,90,5.4,8.0,91,0.00,,,0.00,Rainwise IP-100,2013-10-15 11:44:00,
2013-10-15 07:45:00,55.9,53.0,30.11,East,90,5.1,7.0,91,0.00,,,0.00,Rainwise IP-100,2013-10-15 11:45:00,
2013-10-15 07:47:00,56.0,53.0,30.11,East,90,5.1,7.0,91,0.00,,,0.00,Rainwise IP-100,2013-10-15 11:47:00,
2013-10-15 07:48:00,56.0,53.0,30.11,East,90,4.7,7.0,91,0.00,,,0.00,Rainwise IP-100,2013-10-15 11:48:00,
2013-10-15 07:50:00,56.0,53.0,30.11,East,90,6.5,7.0,90,0.00,,,0.00,Rainwise IP-100,2013-10-15 11:50:00,
2013-10-15 07:51:00,56.1,53.0,30.11,East,90,7.0,7.0,90,0.00,,,0.00,Rainwise IP-100,2013-10-15 11:51:00,
2013-10-15 07:52:00,56.1,53.0,30.11,East,90,6.8,7.0,90,0.00,,,0.00,Rainwise IP-100,2013-10-15 11:52:00,
2013-10-15 07:53:00,56.1,53.0,30.11,East,90,7.9,8.0,90,0.00,,,0.00,Rainwise IP-100,2013-10-15 11:53:00,
2013-10-15 07:54:00,56.1,53.0,30.11,East,90,7.0,8.0,90,0.00,,,0.00,Rainwise IP-100,2013-10-15 11:54:00,
2013-10-15 07:56:00,56.2,53.0,30.11,ENE,67,4.7,8.0,89,0.00,,,0.00,Rainwise IP-100,2013-10-15 11:56:00,
2013-10-15 07:57:00,56.2,53.0,30.11,East,90,4.2,8.0,89,0.00,,,0.00,Rainwise IP-100,2013-10-15 11:57:00,
2013-10-15 07:58:00,56.3,53.0,30.11,East,90,6.3,7.0,89,0.00,,,0.00,Rainwise IP-100,2013-10-15 11:58:00,
2013-10-15 08:00:00,56.4,53.0,30.11,East,90,6.3,8.0,89,0.00,,,0.00,Rainwise IP-100,2013-10-15 12:00:00,
2013-10-15 08:01:00,56.4,53.0,30.12,East,90,5.6,8.0,88,0.00,,,0.00,Rainwise IP-100,2013-10-15 12:01:00,
2013-10-15 08:02:00,56.5,53.0,30.11,ENE,67,5.6,8.0,88,0.00,,,0.00,Rainwise IP-100,2013-10-15 12:02:00,
2013-10-15 08:03:00,56.5,53.0,30.11,ENE,67,5.4,8.0,88,0.00,,,0.00,Rainwise IP-100,2013-10-15 12:03:00,
2013-10-15 08:04:00,56.5,53.0,30.12,ENE,67,7.2,7.2,88,0.00,,,0.00,Rainwise IP-100,2013-10-15 12:04:00,
2013-10-15 08:05:00,56.6,53.0,30.11,ENE,67,7.0,8.0,88,0.00,,,0.00,Rainwise IP-100,2013-10-15 12:05:00,
2013-10-15 08:06:00,56.6,53.0,30.12,ENE,67,6.3,8.0,88,0.00,,,0.00,Rainwise IP-100,2013-10-15 12:06:00,
2013-10-15 08:08:00,56.7,53.0,30.12,NE,45,7.5,8.0,88,0.00,,,0.00,Rainwise IP-100,2013-10-15 12:08:00,
2013-10-15 08:09:00,56.7,53.0,30.12,ENE,67,7.2,8.0,88,0.00,,,0.00,Rainwise IP-100,2013-10-15 12:09:00,
2013-10-15 08:10:00,56.7,53.0,30.11,ENE,67,7.7,9.0,88,0.00,,,0.00,Rainwise IP-100,2013-10-15 12:10:00,
2013-10-15 08:11:00,56.7,53.0,30.12,ENE,67,6.1,9.0,88,0.00,,,0.00,Rainwise IP-100,2013-10-15 12:11:00,
2013-10-15 08:13:00,56.8,53.0,30.12,ENE,67,4.9,9.0,88,0.00,,,0.00,Rainwise IP-100,2013-10-15 12:13:00,
2013-10-15 08:14:00,56.8,53.0,30.12,ENE,67,7.7,9.0,88,0.00,,,0.00,Rainwise IP-100,2013-10-15 12:14:00,
2013-10-15 08:16:00,56.9,53.0,30.12,ENE,67,9.3,9.3,88,0.00,,,0.00,Rainwise IP-100,2013-10-15 12:16:00,
2013-10-15 08:17:00,56.9,53.0,30.11,ENE,67,8.4,9.0,88,0.00,,,0.00,Rainwise IP-100,2013-10-15 12:17:00,
2013-10-15 08:18:00,57.0,54.0,30.12,ENE,67,4.2,9.0,89,0.00,,,0.00,Rainwise IP-100,2013-10-15 12:18:00,
2013-10-15 08:19:00,57.0,54.0,30.12,ENE,67,7.9,9.0,89,0.00,,,0.00,Rainwise IP-100,2013-10-15 12:19:00,
2013-10-15 08:20:00,57.1,54.0,30.12,East,90,5.6,9.0,89,0.00,,,0.00,Rainwise IP-100,2013-10-15 12:20:00,
2013-10-15 08:21:00,57.2,53.0,30.12,ENE,67,7.2,9.0,88,0.00,,,0.00,Rainwise IP-100,2013-10-15 12:21:00,
2013-10-15 08:22:00,57.2,53.0,30.11,ENE,67,6.5,9.0,88,0.00,,,0.00,Rainwise IP-100,2013-10-15 12:22:00,
2013-10-15 08:24:00,57.3,53.0,30.11,ENE,67,8.9,10.0,88,0.00,,,0.00,Rainwise IP-100,2013-10-15 12:24:00,
2013-10-15 08:26:00,57.3,53.0,30.11,ENE,67,6.3,10.0,88,0.00,,,0.00,Rainwise IP-100,2013-10-15 12:26:00,
2013-10-15 08:27:00,57.4,54.0,30.12,NE,45,6.1,10.0,88,0.00,,,0.00,Rainwise IP-100,2013-10-15 12:27:00,
2013-10-15 08:29:00,57.5,54.0,30.11,NE,45,9.8,10.0,88,0.00,,,0.00,Rainwise IP-100,2013-10-15 12:29:00,
2013-10-15 08:31:00,57.5,54.0,30.12,ENE,67,7.5,12.0,87,0.00,,,0.00,Rainwise IP-100,2013-10-15 12:31:00,
2013-10-15 08:32:00,57.6,54.0,30.11,ENE,67,7.2,12.0,87,0.00,,,0.00,Rainwise IP-100,2013-10-15 12:32:00,
2013-10-15 08:33:00,57.6,54.0,30.12,NE,45,7.2,12.0,87,0.00,,,0.00,Rainwise IP-100,2013-10-15 12:33:00,
2013-10-15 08:34:00,57.7,54.0,30.12,NE,45,5.4,12.0,87,0.00,,,0.00,Rainwise IP-100,2013-10-15 12:34:00,
2013-10-15 08:35:00,57.7,54.0,30.12,NE,45,7.5,11.0,87,0.00,,,0.00,Rainwise IP-100,2013-10-15 12:35:00,
2013-10-15 08:36:00,57.8,54.0,30.11,ENE,67,11.0,11.0,87,0.00,,,0.00,Rainwise IP-100,2013-10-15 12:36:00,
2013-10-15 08:37:00,57.8,54.0,30.11,ENE,67,8.6,11.0,87,0.00,,,0.00,Rainwise IP-100,2013-10-15 12:37:00,
2013-10-15 08:38:00,57.8,54.0,30.11,ENE,67,7.5,11.0,87,0.00,,,0.00,Rainwise IP-100,2013-10-15 12:38:00,
2013-10-15 08:39:00,57.9,54.0,30.11,ENE,67,7.0,11.0,87,0.00,,,0.00,Rainwise IP-100,2013-10-15 12:39:00,
2013-10-15 08:40:00,57.9,54.0,30.11,ENE,67,7.9,11.0,87,0.00,,,0.00,Rainwise IP-100,2013-10-15 12:40:00,
2013-10-15 08:41:00,57.9,54.0,30.11,NE,45,10.0,11.0,87,0.00,,,0.00,Rainwise IP-100,2013-10-15 12:41:00,
2013-10-15 08:42:00,57.9,54.0,30.11,ENE,67,10.0,11.0,87,0.00,,,0.00,Rainwise IP-100,2013-10-15 12:42:00,
2013-10-15 08:43:00,58.0,54.0,30.11,ENE,67,8.6,11.0,87,0.00,,,0.00,Rainwise IP-100,2013-10-15 12:43:00,
2013-10-15 08:45:00,58.0,54.0,30.11,ENE,67,9.3,11.0,87,0.00,,,0.00,Rainwise IP-100,2013-10-15 12:45:00,
2013-10-15 08:46:00,58.0,54.0,30.11,NE,45,10.0,11.0,87,0.00,,,0.00,Rainwise IP-100,2013-10-15 12:46:00,
2013-10-15 08:48:00,58.0,54.0,30.11,ENE,67,7.5,11.0,87,0.00,,,0.00,Rainwise IP-100,2013-10-15 12:48:00,
2013-10-15 08:50:00,58.1,54.0,30.11,ENE,67,9.8,12.0,87,0.00,,,0.00,Rainwise IP-100,2013-10-15 12:50:00,
2013-10-15 08:51:00,58.1,54.0,30.11,ENE,67,9.6,12.0,87,0.00,,,0.00,Rainwise IP-100,2013-10-15 12:51:00,
2013-10-15 08:53:00,58.1,54.0,30.11,NE,45,11.0,12.0,87,0.00,,,0.00,Rainwise IP-100,2013-10-15 12:53:00,
2013-10-15 08:54:00,58.1,54.0,30.11,NE,45,8.9,14.0,87,0.00,,,0.00,Rainwise IP-100,2013-10-15 12:54:00,
2013-10-15 08:55:00,58.1,54.0,30.11,ENE,67,11.0,14.0,87,0.00,,,0.00,Rainwise IP-100,2013-10-15 12:55:00,
2013-10-15 08:56:00,58.1,54.0,30.11,ENE,67,6.3,14.0,87,0.00,,,0.00,Rainwise IP-100,2013-10-15 12:56:00,
2013-10-15 08:57:00,58.1,54.0,30.11,ENE,67,10.3,14.0,87,0.00,,,0.00,Rainwise IP-100,2013-10-15 12:57:00,
2013-10-15 08:59:00,58.1,54.0,30.11,ENE,67,8.6,14.0,87,0.00,,,0.00,Rainwise IP-100,2013-10-15 12:59:00,
2013-10-15 09:00:00,58.2,54.0,30.11,ENE,67,11.0,14.0,87,0.00,,,0.00,Rainwise IP-100,2013-10-15 13:00:00,
2013-10-15 09:01:00,58.2,54.0,30.11,ENE,67,6.3,14.0,87,0.00,,,0.00,Rainwise IP-100,2013-10-15 13:01:00,
2013-10-15 09:02:00,58.2,54.0,30.11,ENE,67,10.0,14.0,87,0.00,,,0.00,Rainwise IP-100,2013-10-15 13:02:00,
2013-10-15 09:03:00,58.2,54.0,30.11,ENE,67,12.1,14.0,87,0.00,,,0.00,Rainwise IP-100,2013-10-15 13:03:00,
2013-10-15 09:05:00,58.2,54.0,30.10,ENE,67,13.3,14.0,87,0.00,,,0.00,Rainwise IP-100,2013-10-15 13:05:00,
2013-10-15 09:06:00,58.2,54.0,30.11,NE,45,11.4,14.0,87,0.00,,,0.00,Rainwise IP-100,2013-10-15 13:06:00,
2013-10-15 09:07:00,58.2,54.0,30.11,ENE,67,12.8,14.0,87,0.00,,,0.00,Rainwise IP-100,2013-10-15 13:07:00,
2013-10-15 09:09:00,58.3,54.0,30.11,NE,45,11.7,13.0,87,0.00,,,0.00,Rainwise IP-100,2013-10-15 13:09:00,
2013-10-15 09:10:00,58.2,54.0,30.11,ENE,67,10.0,13.0,87,0.00,,,0.00,Rainwise IP-100,2013-10-15 13:10:00,
2013-10-15 09:11:00,58.2,54.0,30.11,ENE,67,6.1,13.0,86,0.00,,,0.00,Rainwise IP-100,2013-10-15 13:11:00,
2013-10-15 09:12:00,58.3,54.0,30.11,ENE,67,10.5,13.0,86,0.00,,,0.00,Rainwise IP-100,2013-10-15 13:12:00,
2013-10-15 09:14:00,58.3,54.0,30.11,ENE,67,8.9,13.0,86,0.00,,,0.00,Rainwise IP-100,2013-10-15 13:14:00,
2013-10-15 09:15:00,58.4,54.0,30.11,NE,45,8.2,13.0,86,0.00,,,0.00,Rainwise IP-100,2013-10-15 13:15:00,
2013-10-15 09:17:00,58.5,54.0,30.12,ENE,67,10.3,13.0,86,0.00,,,0.00,Rainwise IP-100,2013-10-15 13:17:00,
2013-10-15 09:18:00,58.5,54.0,30.11,ENE,67,14.9,15.0,86,0.00,,,0.00,Rainwise IP-100,2013-10-15 13:18:00,
2013-10-15 09:20:00,58.5,54.0,30.11,NE,45,8.4,15.0,86,0.00,,,0.00,Rainwise IP-100,2013-10-15 13:20:00,
2013-10-15 09:22:00,58.4,54.0,30.12,NNE,22,5.6,15.0,87,0.00,,,0.00,Rainwise IP-100,2013-10-15 13:22:00,
2013-10-15 09:23:00,58.4,54.0,30.12,NE,45,7.0,14.0,87,0.00,,,0.00,Rainwise IP-100,2013-10-15 13:23:00,
2013-10-15 09:26:00,58.2,54.0,30.12,NNE,22,8.9,14.0,88,0.00,,,0.00,Rainwise IP-100,2013-10-15 13:26:00,
2013-10-15 09:27:00,58.2,54.0,30.11,NE,45,8.9,14.0,88,0.00,,,0.00,Rainwise IP-100,2013-10-15 13:27:00,
2013-10-15 09:28:00,58.1,54.0,30.11,NE,45,9.3,14.0,88,0.00,,,0.00,Rainwise IP-100,2013-10-15 13:28:00,
2013-10-15 09:32:00,58.1,55.0,30.12,NE,45,9.1,14.0,89,0.00,,,0.00,Rainwise IP-100,2013-10-15 13:32:00,
2013-10-15 09:33:00,58.0,55.0,30.11,ENE,67,11.4,14.0,89,0.00,,,0.00,Rainwise IP-100,2013-10-15 13:33:00,
2013-10-15 09:37:00,58.0,55.0,30.12,ENE,67,11.4,14.0,89,0.00,,,0.00,Rainwise IP-100,2013-10-15 13:37:00,
2013-10-15 09:38:00,58.0,55.0,30.11,ENE,67,10.7,13.0,90,0.00,,,0.00,Rainwise IP-100,2013-10-15 13:38:00,
2013-10-15 09:42:00,58.2,55.0,30.12,East,90,7.7,13.0,89,0.00,,,0.00,Rainwise IP-100,2013-10-15 13:42:00,
2013-10-15 09:43:00,58.3,55.0,30.12,East,90,5.6,13.0,89,0.00,,,0.00,Rainwise IP-100,2013-10-15 13:43:00,
2013-10-15 09:44:00,58.4,55.0,30.12,East,90,8.6,11.0,89,0.00,,,0.00,Rainwise IP-100,2013-10-15 13:44:00,
2013-10-15 09:48:00,58.6,55.0,30.11,ENE,67,11.4,14.0,87,0.00,,,0.00,Rainwise IP-100,2013-10-15 13:48:00,
2013-10-15 09:49:00,58.7,54.0,30.12,ESE,112,8.2,14.0,86,0.00,,,0.00,Rainwise IP-100,2013-10-15 13:49:00,
2013-10-15 09:50:00,58.7,54.0,30.12,ENE,67,11.9,14.0,85,0.00,,,0.00,Rainwise IP-100,2013-10-15 13:50:00,
2013-10-15 09:53:00,58.9,54.0,30.11,ENE,67,9.6,15.0,83,0.00,,,0.00,Rainwise IP-100,2013-10-15 13:53:00,
2013-10-15 09:54:00,58.9,53.0,30.12,ENE,67,9.8,15.0,82,0.00,,,0.00,Rainwise IP-100,2013-10-15 13:54:00,
2013-10-15 09:56:00,58.9,53.0,30.11,ENE,67,12.8,15.0,81,0.00,,,0.00,Rainwise IP-100,2013-10-15 13:56:00,
2013-10-15 09:58:00,59.1,53.0,30.12,ESE,112,4.4,15.0,81,0.00,,,0.00,Rainwise IP-100,2013-10-15 13:58:00,
2013-10-15 09:59:00,59.1,53.0,30.11,ENE,67,8.9,15.0,81,0.00,,,0.00,Rainwise IP-100,2013-10-15 13:59:00,
2013-10-15 10:00:00,59.2,53.0,30.11,SE,135,6.8,15.0,81,0.00,,,0.00,Rainwise IP-100,2013-10-15 14:00:00,
2013-10-15 10:01:00,59.3,53.0,30.11,East,90,11.4,14.0,80,0.00,,,0.00,Rainwise IP-100,2013-10-15 14:01:00,
2013-10-15 10:03:00,59.3,53.0,30.12,ENE,67,10.0,14.0,80,0.00,,,0.00,Rainwise IP-100,2013-10-15 14:03:00,
2013-10-15 10:04:00,59.4,53.0,30.12,ESE,112,9.1,14.0,80,0.00,,,0.00,Rainwise IP-100,2013-10-15 14:04:00,
2013-10-15 10:05:00,59.4,53.0,30.11,ENE,67,8.9,14.0,80,0.00,,,0.00,Rainwise IP-100,2013-10-15 14:05:00,
2013-10-15 10:06:00,59.5,53.0,30.12,ENE,67,11.9,14.0,80,0.00,,,0.00,Rainwise IP-100,2013-10-15 14:06:00,
2013-10-15 10:07:00,59.6,53.0,30.12,ENE,67,6.8,14.0,81,0.00,,,0.00,Rainwise IP-100,2013-10-15 14:07:00,
2013-10-15 10:09:00,59.6,53.0,30.12,ENE,67,13.8,15.0,81,0.00,,,0.00,Rainwise IP-100,2013-10-15 14:09:00,
2013-10-15 10:11:00,59.4,54.0,30.11,East,90,10.5,15.0,82,0.00,,,0.00,Rainwise IP-100,2013-10-15 14:11:00,
2013-10-15 10:12:00,59.4,54.0,30.12,East,90,10.5,15.0,82,0.00,,,0.00,Rainwise IP-100,2013-10-15 14:12:00,
2013-10-15 10:14:00,59.4,54.0,30.12,ENE,67,14.5,15.0,83,0.00,,,0.00,Rainwise IP-100,2013-10-15 14:14:00,
2013-10-15 10:15:00,59.3,54.0,30.12,ENE,67,8.9,14.0,83,0.00,,,0.00,Rainwise IP-100,2013-10-15 14:15:00,
2013-10-15 10:17:00,59.2,54.0,30.12,East,90,8.9,14.0,84,0.00,,,0.00,Rainwise IP-100,2013-10-15 14:17:00,
2013-10-15 10:18:00,59.1,54.0,30.12,ENE,67,13.3,14.0,84,0.00,,,0.00,Rainwise IP-100,2013-10-15 14:18:00,
2013-10-15 10:20:00,59.2,54.0,30.12,ESE,112,9.1,14.0,84,0.00,,,0.00,Rainwise IP-100,2013-10-15 14:20:00,
2013-10-15 10:22:00,59.2,54.0,30.12,East,90,14.9,14.9,84,0.00,,,0.00,Rainwise IP-100,2013-10-15 14:22:00,
2013-10-15 10:23:00,59.2,54.0,30.12,East,90,12.8,15.0,84,0.00,,,0.00,Rainwise IP-100,2013-10-15 14:23:00,
2013-10-15 10:25:00,59.2,54.0,30.12,ENE,67,10.7,15.0,83,0.00,,,0.00,Rainwise IP-100,2013-10-15 14:25:00,
2013-10-15 10:26:00,59.2,54.0,30.12,ENE,67,9.3,15.0,83,0.00,,,0.00,Rainwise IP-100,2013-10-15 14:26:00,
2013-10-15 10:28:00,59.2,54.0,30.12,East,90,11.2,15.0,83,0.00,,,0.00,Rainwise IP-100,2013-10-15 14:28:00,
2013-10-15 10:30:00,59.3,54.0,30.12,ESE,112,9.8,15.0,83,0.00,,,0.00,Rainwise IP-100,2013-10-15 14:30:00,
2013-10-15 10:31:00,59.4,54.0,30.12,ESE,112,13.1,15.0,83,0.00,,,0.00,Rainwise IP-100,2013-10-15 14:31:00,
2013-10-15 10:33:00,59.5,54.0,30.12,ESE,112,5.4,14.0,83,0.00,,,0.00,Rainwise IP-100,2013-10-15 14:33:00,
2013-10-15 10:34:00,59.5,54.0,30.12,East,90,11.0,14.0,83,0.00,,,0.00,Rainwise IP-100,2013-10-15 14:34:00,
2013-10-15 10:35:00,59.5,54.0,30.12,ESE,112,11.4,14.0,83,0.00,,,0.00,Rainwise IP-100,2013-10-15 14:35:00,
2013-10-15 10:37:00,59.6,54.0,30.12,East,90,10.5,14.0,83,0.00,,,0.00,Rainwise IP-100,2013-10-15 14:37:00,
2013-10-15 10:39:00,59.7,54.0,30.12,East,90,9.3,14.0,83,0.00,,,0.00,Rainwise IP-100,2013-10-15 14:39:00,
2013-10-15 10:40:00,59.6,54.0,30.11,East,90,11.0,14.0,82,0.00,,,0.00,Rainwise IP-100,2013-10-15 14:40:00,
2013-10-15 10:42:00,59.6,53.0,30.11,ENE,67,14.9,15.0,81,0.00,,,0.00,Rainwise IP-100,2013-10-15 14:42:00,
2013-10-15 10:43:00,59.5,53.0,30.11,East,90,11.4,15.0,81,0.00,,,0.00,Rainwise IP-100,2013-10-15 14:43:00,
2013-10-15 10:44:00,59.5,53.0,30.12,East,90,11.7,16.0,81,0.00,,,0.00,Rainwise IP-100,2013-10-15 14:44:00,
2013-10-15 10:45:00,59.5,53.0,30.11,ESE,112,7.5,16.0,80,0.00,,,0.00,Rainwise IP-100,2013-10-15 14:45:00,
2013-10-15 10:47:00,59.4,53.0,30.12,East,90,9.6,16.0,79,0.00,,,0.00,Rainwise IP-100,2013-10-15 14:47:00,
2013-10-15 10:48:00,59.4,53.0,30.11,East,90,14.0,16.0,78,0.00,,,0.00,Rainwise IP-100,2013-10-15 14:48:00,
2013-10-15 10:50:00,59.3,52.0,30.12,East,90,12.4,15.0,78,0.00,,,0.00,Rainwise IP-100,2013-10-15 14:50:00,
2013-10-15 10:52:00,59.4,53.0,30.11,ESE,112,9.8,15.0,78,0.00,,,0.00,Rainwise IP-100,2013-10-15 14:52:00,
2013-10-15 10:54:00,59.5,53.0,30.11,ENE,67,9.8,14.0,78,0.00,,,0.00,Rainwise IP-100,2013-10-15 14:54:00,
2013-10-15 10:55:00,59.7,53.0,30.11,East,90,11.0,12.0,79,0.00,,,0.00,Rainwise IP-100,2013-10-15 14:55:00,
2013-10-15 10:56:00,59.7,53.0,30.11,East,90,12.1,13.0,79,0.00,,,0.00,Rainwise IP-100,2013-10-15 14:56:00,
2013-10-15 10:57:00,59.7,53.0,30.12,ENE,67,6.5,13.0,79,0.00,,,0.00,Rainwise IP-100,2013-10-15 14:57:00,
2013-10-15 10:58:00,59.8,53.0,30.11,ENE,67,9.1,13.0,79,0.00,,,0.00,Rainwise IP-100,2013-10-15 14:58:00,
2013-10-15 11:01:00,59.9,53.0,30.11,ESE,112,7.2,14.0,79,0.00,,,0.00,Rainwise IP-100,2013-10-15 15:01:00,
2013-10-15 11:02:00,59.8,53.0,30.11,ENE,67,6.5,14.0,79,0.00,,,0.00,Rainwise IP-100,2013-10-15 15:02:00,
2013-10-15 11:03:00,59.9,53.0,30.11,ENE,67,14.9,14.9,79,0.00,,,0.00,Rainwise IP-100,2013-10-15 15:03:00,
2013-10-15 11:06:00,59.8,53.0,30.11,ESE,112,12.4,14.0,79,0.00,,,0.00,Rainwise IP-100,2013-10-15 15:06:00,
2013-10-15 11:08:00,59.8,53.0,30.11,East,90,11.9,15.0,79,0.00,,,0.00,Rainwise IP-100,2013-10-15 15:08:00,
2013-10-15 11:09:00,59.7,53.0,30.11,East,90,10.7,15.0,79,0.00,,,0.00,Rainwise IP-100,2013-10-15 15:09:00,
2013-10-15 11:11:00,59.7,53.0,30.11,East,90,12.8,18.0,79,0.00,,,0.00,Rainwise IP-100,2013-10-15 15:11:00,
2013-10-15 11:12:00,59.7,53.0,30.11,East,90,10.5,18.0,79,0.00,,,0.00,Rainwise IP-100,2013-10-15 15:12:00,
2013-10-15 11:13:00,59.6,53.0,30.11,East,90,13.1,18.0,78,0.00,,,0.00,Rainwise IP-100,2013-10-15 15:13:00,
2013-10-15 11:14:00,59.6,53.0,30.12,ESE,112,11.7,18.0,78,0.00,,,0.00,Rainwise IP-100,2013-10-15 15:14:00,
2013-10-15 11:15:00,59.5,53.0,30.11,ESE,112,10.3,18.0,78,0.00,,,0.00,Rainwise IP-100,2013-10-15 15:15:00,
2013-10-15 11:17:00,59.5,53.0,30.12,East,90,7.5,14.0,79,0.00,,,0.00,Rainwise IP-100,2013-10-15 15:17:00,
2013-10-15 11:18:00,59.5,53.0,30.11,East,90,11.0,15.0,79,0.00,,,0.00,Rainwise IP-100,2013-10-15 15:18:00,
2013-10-15 11:20:00,59.6,53.0,30.11,ESE,112,11.7,15.0,79,0.00,,,0.00,Rainwise IP-100,2013-10-15 15:20:00,
2013-10-15 11:22:00,59.6,53.0,30.11,ENE,67,10.7,15.0,79,0.00,,,0.00,Rainwise IP-100,2013-10-15 15:22:00,
2013-10-15 11:24:00,59.7,53.0,30.11,ENE,67,12.6,15.0,79,0.00,,,0.00,Rainwise IP-100,2013-10-15 15:24:00,
2013-10-15 11:25:00,59.8,53.0,30.11,ESE,112,10.3,15.0,79,0.00,,,0.00,Rainwise IP-100,2013-10-15 15:25:00,
2013-10-15 11:26:00,59.8,53.0,30.11,ENE,67,12.6,15.0,79,0.00,,,0.00,Rainwise IP-100,2013-10-15 15:26:00,
2013-10-15 11:27:00,59.8,53.0,30.11,ENE,67,9.6,15.0,78,0.00,,,0.00,Rainwise IP-100,2013-10-15 15:27:00,
2013-10-15 11:29:00,59.9,53.0,30.11,East,90,10.0,14.0,79,0.00,,,0.00,Rainwise IP-100,2013-10-15 15:29:00,
2013-10-15 11:30:00,59.8,53.0,30.11,ESE,112,9.3,14.0,79,0.00,,,0.00,Rainwise IP-100,2013-10-15 15:30:00,
2013-10-15 11:31:00,59.8,53.0,30.11,ENE,67,8.9,14.0,79,0.00,,,0.00,Rainwise IP-100,2013-10-15 15:31:00,
2013-10-15 11:32:00,59.9,53.0,30.11,ENE,67,11.9,14.0,79,0.00,,,0.00,Rainwise IP-100,2013-10-15 15:32:00,
2013-10-15 11:33:00,59.8,53.0,30.11,ENE,67,13.3,16.0,79,0.00,,,0.00,Rainwise IP-100,2013-10-15 15:33:00,
2013-10-15 11:34:00,59.8,53.0,30.11,East,90,14.5,16.0,79,0.00,,,0.00,Rainwise IP-100,2013-10-15 15:34:00,
2013-10-15 11:36:00,59.6,53.0,30.11,East,90,12.1,16.0,79,0.00,,,0.00,Rainwise IP-100,2013-10-15 15:36:00,
2013-10-15 11:37:00,59.6,53.0,30.11,ENE,67,6.3,16.0,79,0.00,,,0.00,Rainwise IP-100,2013-10-15 15:37:00,
2013-10-15 11:38:00,59.6,53.0,30.11,NE,45,7.9,15.0,79,0.00,,,0.00,Rainwise IP-100,2013-10-15 15:38:00,
2013-10-15 11:39:00,59.6,53.0,30.11,East,90,6.8,15.0,79,0.00,,,0.00,Rainwise IP-100,2013-10-15 15:39:00,
2013-10-15 11:41:00,59.6,53.0,30.11,ENE,67,11.2,15.0,79,0.00,,,0.00,Rainwise IP-100,2013-10-15 15:41:00,
2013-10-15 11:42:00,59.6,53.0,30.11,ENE,67,10.5,15.0,79,0.00,,,0.00,Rainwise IP-100,2013-10-15 15:42:00,
2013-10-15 11:43:00,59.7,53.0,30.11,ESE,112,9.8,15.0,80,0.00,,,0.00,Rainwise IP-100,2013-10-15 15:43:00,
2013-10-15 11:44:00,59.8,53.0,30.11,East,90,12.4,15.0,80,0.00,,,0.00,Rainwise IP-100,2013-10-15 15:44:00,
2013-10-15 11:45:00,59.8,53.0,30.11,ESE,112,12.1,15.0,80,0.00,,,0.00,Rainwise IP-100,2013-10-15 15:45:00,
2013-10-15 11:46:00,59.9,53.0,30.11,East,90,13.1,15.0,79,0.00,,,0.00,Rainwise IP-100,2013-10-15 15:46:00,
2013-10-15 11:47:00,59.8,53.0,30.11,East,90,13.8,15.0,79,0.00,,,0.00,Rainwise IP-100,2013-10-15 15:47:00,
2013-10-15 11:48:00,59.8,53.0,30.11,ESE,112,5.8,15.0,79,0.00,,,0.00,Rainwise IP-100,2013-10-15 15:48:00,
2013-10-15 11:49:00,59.8,53.0,30.11,ENE,67,8.2,15.0,79,0.00,,,0.00,Rainwise IP-100,2013-10-15 15:49:00,
2013-10-15 11:50:00,59.8,53.0,30.11,ENE,67,13.3,15.0,79,0.00,,,0.00,Rainwise IP-100,2013-10-15 15:50:00,
2013-10-15 11:52:00,59.8,53.0,30.11,ENE,67,15.2,15.2,79,0.00,,,0.00,Rainwise IP-100,2013-10-15 15:52:00,
2013-10-15 11:53:00,59.8,53.0,30.11,ENE,67,13.8,15.0,79,0.00,,,0.00,Rainwise IP-100,2013-10-15 15:53:00,
2013-10-15 11:54:00,59.7,53.0,30.11,East,90,10.5,15.0,79,0.00,,,0.00,Rainwise IP-100,2013-10-15 15:54:00,
2013-10-15 11:55:00,59.6,53.0,30.11,East,90,14.9,15.0,79,0.00,,,0.00,Rainwise IP-100,2013-10-15 15:55:00,
2013-10-15 11:57:00,59.6,53.0,30.11,ENE,67,8.6,15.0,79,0.00,,,0.00,Rainwise IP-100,2013-10-15 15:57:00,
2013-10-15 11:58:00,59.7,53.0,30.11,ENE,67,14.9,14.9,79,0.00,,,0.00,Rainwise IP-100,2013-10-15 15:58:00,
2013-10-15 11:59:00,59.6,53.0,30.11,East,90,11.4,16.0,79,0.00,,,0.00,Rainwise IP-100,2013-10-15 15:59:00,
2013-10-15 12:00:00,59.5,53.0,30.11,East,90,6.8,16.0,79,0.00,,,0.00,Rainwise IP-100,2013-10-15 16:00:00,
2013-10-15 12:01:00,59.5,53.0,30.11,ENE,67,11.7,16.0,79,0.00,,,0.00,Rainwise IP-100,2013-10-15 16:01:00,
2013-10-15 12:02:00,59.6,53.0,30.11,East,90,11.7,16.0,79,0.00,,,0.00,Rainwise IP-100,2013-10-15 16:02:00,
2013-10-15 12:04:00,59.7,53.0,30.11,East,90,9.3,16.0,79,0.00,,,0.00,Rainwise IP-100,2013-10-15 16:04:00,
2013-10-15 12:05:00,59.8,53.0,30.11,ESE,112,8.6,14.0,79,0.00,,,0.00,Rainwise IP-100,2013-10-15 16:05:00,
2013-10-15 12:06:00,59.9,53.0,30.11,East,90,9.3,14.0,79,0.00,,,0.00,Rainwise IP-100,2013-10-15 16:06:00,
2013-10-15 12:07:00,60.0,53.0,30.11,ENE,67,10.3,14.0,79,0.00,,,0.00,Rainwise IP-100,2013-10-15 16:07:00,
2013-10-15 12:09:00,60.2,53.0,30.11,East,90,11.2,13.0,78,0.00,,,0.00,Rainwise IP-100,2013-10-15 16:09:00,
2013-10-15 12:11:00,60.3,53.0,30.11,ESE,112,2.3,14.0,78,0.00,,,0.00,Rainwise IP-100,2013-10-15 16:11:00,
2013-10-15 12:13:00,60.4,53.0,30.11,East,90,14.7,17.0,78,0.00,,,0.00,Rainwise IP-100,2013-10-15 16:13:00,
2013-10-15 12:14:00,60.4,53.0,30.11,East,90,13.5,17.0,77,0.00,,,0.00,Rainwise IP-100,2013-10-15 16:14:00,
2013-10-15 12:15:00,60.3,53.0,30.11,East,90,14.7,17.0,77,0.00,,,0.00,Rainwise IP-100,2013-10-15 16:15:00,
2013-10-15 12:16:00,60.2,53.0,30.11,East,90,8.6,17.0,77,0.00,,,0.00,Rainwise IP-100,2013-10-15 16:16:00,
2013-10-15 12:17:00,60.1,53.0,30.11,ESE,112,12.8,17.0,77,0.00,,,0.00,Rainwise IP-100,2013-10-15 16:17:00,
2013-10-15 12:18:00,60.1,53.0,30.11,East,90,8.2,16.0,77,0.00,,,0.00,Rainwise IP-100,2013-10-15 16:18:00,
2013-10-15 12:19:00,60.0,53.0,30.11,East,90,11.9,16.0,77,0.00,,,0.00,Rainwise IP-100,2013-10-15 16:19:00,
2013-10-15 12:20:00,59.9,53.0,30.11,East,90,11.9,16.0,77,0.00,,,0.00,Rainwise IP-100,2013-10-15 16:20:00,
2013-10-15 12:23:00,59.8,53.0,30.11,East,90,9.6,14.0,78,0.00,,,0.00,Rainwise IP-100,2013-10-15 16:23:00,
2013-10-15 12:24:00,59.8,53.0,30.10,ENE,67,10.3,14.0,78,0.00,,,0.00,Rainwise IP-100,2013-10-15 16:24:00,
2013-10-15 12:25:00,59.8,53.0,30.11,East,90,8.9,15.0,78,0.00,,,0.00,Rainwise IP-100,2013-10-15 16:25:00,
2013-10-15 12:28:00,59.7,53.0,30.11,ENE,67,10.0,15.0,78,0.00,,,0.00,Rainwise IP-100,2013-10-15 16:28:00,
2013-10-15 12:29:00,59.7,53.0,30.10,ENE,67,15.4,15.4,78,0.00,,,0.00,Rainwise IP-100,2013-10-15 16:29:00,
2013-10-15 12:30:00,59.7,53.0,30.10,East,90,10.7,15.0,78,0.00,,,0.00,Rainwise IP-100,2013-10-15 16:30:00,
2013-10-15 12:31:00,59.6,53.0,30.11,East,90,10.5,15.0,78,0.00,,,0.00,Rainwise IP-100,2013-10-15 16:31:00,
2013-10-15 12:32:00,59.6,53.0,30.11,ENE,67,13.1,15.0,78,0.00,,,0.00,Rainwise IP-100,2013-10-15 16:32:00,
2013-10-15 12:33:00,59.5,53.0,30.10,East,90,10.3,15.0,78,0.00,,,0.00,Rainwise IP-100,2013-10-15 16:33:00,
2013-10-15 12:35:00,59.5,53.0,30.11,ENE,67,7.0,15.0,78,0.00,,,0.00,Rainwise IP-100,2013-10-15 16:35:00,
2013-10-15 12:36:00,59.5,53.0,30.11,ESE,112,2.8,15.0,79,0.00,,,0.00,Rainwise IP-100,2013-10-15 16:36:00,
2013-10-15 12:37:00,59.6,53.0,30.11,East,90,9.8,15.0,79,0.00,,,0.00,Rainwise IP-100,2013-10-15 16:37:00,
2013-10-15 12:39:00,59.7,53.0,30.11,ENE,67,8.6,14.0,78,0.00,,,0.00,Rainwise IP-100,2013-10-15 16:39:00,
2013-10-15 12:40:00,59.9,53.0,30.11,East,90,8.6,14.0,78,0.00,,,0.00,Rainwise IP-100,2013-10-15 16:40:00,
2013-10-15 12:41:00,59.9,53.0,30.11,ENE,67,8.9,13.0,78,0.00,,,0.00,Rainwise IP-100,2013-10-15 16:41:00,
2013-10-15 12:42:00,60.0,53.0,30.11,East,90,6.8,13.0,78,0.00,,,0.00,Rainwise IP-100,2013-10-15 16:42:00,
2013-10-15 12:44:00,60.2,53.0,30.11,East,90,11.9,13.0,78,0.00,,,0.00,Rainwise IP-100,2013-10-15 16:44:00,
2013-10-15 12:46:00,60.3,53.0,30.11,ENE,67,11.4,13.0,78,0.00,,,0.00,Rainwise IP-100,2013-10-15 16:46:00,
2013-10-15 12:47:00,60.3,53.0,30.10,ENE,67,7.7,13.0,78,0.00,,,0.00,Rainwise IP-100,2013-10-15 16:47:00,
2013-10-15 12:49:00,60.3,53.0,30.10,ENE,67,6.1,14.0,78,0.00,,,0.00,Rainwise IP-100,2013-10-15 16:49:00,
2013-10-15 12:50:00,60.2,53.0,30.11,East,90,7.2,14.0,78,0.00,,,0.00,Rainwise IP-100,2013-10-15 16:50:00,
2013-10-15 12:51:00,60.2,53.0,30.10,East,90,13.5,14.0,78,0.00,,,0.00,Rainwise IP-100,2013-10-15 16:51:00,
2013-10-15 12:52:00,60.2,53.0,30.10,ENE,67,13.3,14.0,78,0.00,,,0.00,Rainwise IP-100,2013-10-15 16:52:00,
2013-10-15 12:53:00,60.1,53.0,30.10,East,90,13.5,14.0,78,0.00,,,0.00,Rainwise IP-100,2013-10-15 16:53:00,
2013-10-15 12:54:00,60.0,53.0,30.10,East,90,11.4,14.0,78,0.00,,,0.00,Rainwise IP-100,2013-10-15 16:54:00,
2013-10-15 12:55:00,60.0,53.0,30.10,ESE,112,14.0,14.0,78,0.00,,,0.00,Rainwise IP-100,2013-10-15 16:55:00,
2013-10-15 12:56:00,59.9,53.0,30.10,ESE,112,11.2,15.0,78,0.00,,,0.00,Rainwise IP-100,2013-10-15 16:56:00,
2013-10-15 12:58:00,59.9,53.0,30.10,ENE,67,9.3,15.0,78,0.00,,,0.00,Rainwise IP-100,2013-10-15 16:58:00,
2013-10-15 12:59:00,59.9,53.0,30.10,East,90,9.6,15.0,77,0.00,,,0.00,Rainwise IP-100,2013-10-15 16:59:00,
2013-10-15 13:00:00,59.9,53.0,30.09,ESE,112,5.6,15.0,77,0.00,,,0.00,Rainwise IP-100,2013-10-15 17:00:00,
2013-10-15 13:02:00,60.0,53.0,30.10,ENE,67,6.8,11.0,77,0.00,,,0.00,Rainwise IP-100,2013-10-15 17:02:00,
2013-10-15 13:03:00,60.1,53.0,30.09,ENE,67,10.7,12.0,77,0.00,,,0.00,Rainwise IP-100,2013-10-15 17:03:00,
2013-10-15 13:04:00,60.2,53.0,30.09,East,90,6.8,14.0,77,0.00,,,0.00,Rainwise IP-100,2013-10-15 17:04:00,
2013-10-15 13:05:00,60.2,53.0,30.09,East,90,13.5,14.0,76,0.00,,,0.00,Rainwise IP-100,2013-10-15 17:05:00,
2013-10-15 13:07:00,60.3,53.0,30.09,ESE,112,6.8,14.0,76,0.00,,,0.00,Rainwise IP-100,2013-10-15 17:07:00,
2013-10-15 13:09:00,60.4,53.0,30.09,ENE,67,7.5,14.0,76,0.00,,,0.00,Rainwise IP-100,2013-10-15 17:09:00,
2013-10-15 13:10:00,60.5,53.0,30.09,ENE,67,11.4,13.0,76,0.00,,,0.00,Rainwise IP-100,2013-10-15 17:10:00,
2013-10-15 13:11:00,60.4,53.0,30.09,ENE,67,11.4,15.0,75,0.00,,,0.00,Rainwise IP-100,2013-10-15 17:11:00,
2013-10-15 13:12:00,60.3,52.0,30.08,East,90,11.4,15.0,75,0.00,,,0.00,Rainwise IP-100,2013-10-15 17:12:00,
2013-10-15 13:14:00,60.2,52.0,30.09,East,90,12.4,15.0,75,0.00,,,0.00,Rainwise IP-100,2013-10-15 17:14:00,
2013-10-15 13:15:00,60.1,52.0,30.09,ENE,67,6.8,15.0,75,0.00,,,0.00,Rainwise IP-100,2013-10-15 17:15:00,
2013-10-15 13:16:00,60.1,52.0,30.09,ESE,112,13.1,15.0,75,0.00,,,0.00,Rainwise IP-100,2013-10-15 17:16:00,
2013-10-15 13:17:00,60.1,52.0,30.08,East,90,10.7,15.0,75,0.00,,,0.00,Rainwise IP-100,2013-10-15 17:17:00,
2013-10-15 13:19:00,60.0,52.0,30.09,ENE,67,11.7,13.0,75,0.00,,,0.00,Rainwise IP-100,2013-10-15 17:19:00,
2013-10-15 13:21:00,60.0,52.0,30.09,ESE,112,5.6,13.0,75,0.00,,,0.00,Rainwise IP-100,2013-10-15 17:21:00,
2013-10-15 13:22:00,60.1,52.0,30.09,ESE,112,8.9,13.0,75,0.00,,,0.00,Rainwise IP-100,2013-10-15 17:22:00,
2013-10-15 13:23:00,60.2,52.0,30.09,East,90,4.9,13.0,75,0.00,,,0.00,Rainwise IP-100,2013-10-15 17:23:00,
2013-10-15 13:24:00,60.3,52.0,30.09,ENE,67,10.0,13.0,75,0.00,,,0.00,Rainwise IP-100,2013-10-15 17:24:00,
2013-10-15 13:25:00,60.4,53.0,30.09,East,90,9.3,12.0,75,0.00,,,0.00,Rainwise IP-100,2013-10-15 17:25:00,
2013-10-15 13:26:00,60.5,53.0,30.09,East,90,8.9,13.0,75,0.00,,,0.00,Rainwise IP-100,2013-10-15 17:26:00,
2013-10-15 13:27:00,60.6,53.0,30.09,ENE,67,11.0,13.0,75,0.00,,,0.00,Rainwise IP-100,2013-10-15 17:27:00,
2013-10-15 13:28:00,60.7,53.0,30.09,East,90,9.6,13.0,75,0.00,,,0.00,Rainwise IP-100,2013-10-15 17:28:00,
2013-10-15 13:29:00,60.7,53.0,30.09,East,90,9.3,14.0,75,0.00,,,0.00,Rainwise IP-100,2013-10-15 17:29:00,
2013-10-15 13:31:00,60.7,53.0,30.08,East,90,10.3,14.0,75,0.00,,,0.00,Rainwise IP-100,2013-10-15 17:31:00,
2013-10-15 13:32:00,60.7,53.0,30.09,ESE,112,7.5,15.0,75,0.00,,,0.00,Rainwise IP-100,2013-10-15 17:32:00,
2013-10-15 13:33:00,60.6,53.0,30.09,East,90,7.5,15.0,75,0.00,,,0.00,Rainwise IP-100,2013-10-15 17:33:00,
2013-10-15 13:34:00,60.5,53.0,30.09,ESE,112,6.8,15.0,75,0.00,,,0.00,Rainwise IP-100,2013-10-15 17:34:00,
2013-10-15 13:36:00,60.4,53.0,30.08,ESE,112,4.9,15.0,75,0.00,,,0.00,Rainwise IP-100,2013-10-15 17:36:00,
2013-10-15 13:37:00,60.4,52.0,30.08,East,90,13.3,13.3,74,0.00,,,0.00,Rainwise IP-100,2013-10-15 17:37:00,
2013-10-15 13:38:00,60.4,52.0,30.08,ESE,112,11.4,13.0,74,0.00,,,0.00,Rainwise IP-100,2013-10-15 17:38:00,
2013-10-15 13:39:00,60.4,52.0,30.09,ESE,112,6.8,13.0,74,0.00,,,0.00,Rainwise IP-100,2013-10-15 17:39:00,
2013-10-15 13:41:00,60.5,52.0,30.08,ESE,112,12.4,13.0,73,0.00,,,0.00,Rainwise IP-100,2013-10-15 17:41:00,
2013-10-15 13:42:00,60.6,51.0,30.08,ENE,67,9.3,15.0,72,0.00,,,0.00,Rainwise IP-100,2013-10-15 17:42:00,
2013-10-15 13:43:00,60.6,51.0,30.08,SE,135,5.8,15.0,72,0.00,,,0.00,Rainwise IP-100,2013-10-15 17:43:00,
2013-10-15 13:44:00,60.7,51.0,30.08,ESE,112,8.6,15.0,72,0.00,,,0.00,Rainwise IP-100,2013-10-15 17:44:00,
2013-10-15 13:48:00,60.7,51.0,30.08,ENE,67,7.9,12.0,71,0.00,,,0.00,Rainwise IP-100,2013-10-15 17:48:00,
2013-10-15 13:50:00,60.7,51.0,30.08,East,90,10.0,13.0,71,0.00,,,0.00,Rainwise IP-100,2013-10-15 17:50:00,
2013-10-15 13:53:00,60.7,51.0,30.08,East,90,11.2,13.0,71,0.00,,,0.00,Rainwise IP-100,2013-10-15 17:53:00,
2013-10-15 13:54:00,60.7,51.0,30.08,ENE,67,10.5,13.0,71,0.00,,,0.00,Rainwise IP-100,2013-10-15 17:54:00,
2013-10-15 13:55:00,60.6,51.0,30.08,East,90,11.7,14.0,71,0.00,,,0.00,Rainwise IP-100,2013-10-15 17:55:00,
2013-10-15 13:58:00,60.4,51.0,30.08,East,90,13.3,15.0,71,0.00,,,0.00,Rainwise IP-100,2013-10-15 17:58:00,
2013-10-15 14:00:00,60.3,50.0,30.08,ENE,67,10.7,15.0,72,0.00,,,0.00,Rainwise IP-100,2013-10-15 18:00:00,
2013-10-15 14:01:00,60.3,50.0,30.08,ESE,112,11.4,14.0,72,0.00,,,0.00,Rainwise IP-100,2013-10-15 18:01:00,
2013-10-15 14:03:00,60.3,50.0,30.08,ENE,67,4.9,14.0,71,0.00,,,0.00,Rainwise IP-100,2013-10-15 18:03:00,
2013-10-15 14:05:00,60.3,50.0,30.08,East,90,10.0,14.0,71,0.00,,,0.00,Rainwise IP-100,2013-10-15 18:05:00,
2013-10-15 14:06:00,60.4,51.0,30.08,ENE,67,7.2,14.0,71,0.00,,,0.00,Rainwise IP-100,2013-10-15 18:06:00,
2013-10-15 14:09:00,60.6,50.0,30.08,East,90,10.0,12.0,69,0.00,,,0.00,Rainwise IP-100,2013-10-15 18:09:00,
2013-10-15 14:11:00,60.7,50.0,30.08,East,90,11.2,13.0,68,0.00,,,0.00,Rainwise IP-100,2013-10-15 18:11:00,
2013-10-15 14:13:00,60.9,50.0,30.08,ESE,112,9.1,13.0,67,0.00,,,0.00,Rainwise IP-100,2013-10-15 18:13:00,
2013-10-15 14:14:00,60.9,50.0,30.08,ESE,112,7.7,13.0,67,0.00,,,0.00,Rainwise IP-100,2013-10-15 18:14:00,
2013-10-15 14:16:00,60.9,50.0,30.08,ENE,67,7.9,12.0,66,0.00,,,0.00,Rainwise IP-100,2013-10-15 18:16:00,
2013-10-15 14:17:00,61.0,50.0,30.07,ESE,112,13.3,14.0,66,0.00,,,0.00,Rainwise IP-100,2013-10-15 18:17:00,
2013-10-15 14:18:00,61.0,50.0,30.07,ENE,67,14.7,14.7,66,0.00,,,0.00,Rainwise IP-100,2013-10-15 18:18:00,
2013-10-15 14:19:00,61.0,50.0,30.07,ENE,67,12.4,15.0,66,0.00,,,0.00,Rainwise IP-100,2013-10-15 18:19:00,
2013-10-15 14:21:00,60.9,49.0,30.07,ENE,67,11.9,15.0,65,0.00,,,0.00,Rainwise IP-100,2013-10-15 18:21:00,
2013-10-15 14:22:00,60.9,49.0,30.08,ESE,112,6.1,15.0,64,0.00,,,0.00,Rainwise IP-100,2013-10-15 18:22:00,
2013-10-15 14:23:00,60.8,48.0,30.07,East,90,8.9,15.0,64,0.00,,,0.00,Rainwise IP-100,2013-10-15 18:23:00,
2013-10-15 14:24:00,60.8,48.0,30.07,ESE,112,9.1,14.0,64,0.00,,,0.00,Rainwise IP-100,2013-10-15 18:24:00,
2013-10-15 14:25:00,60.8,47.0,30.07,ENE,67,6.8,14.0,63,0.00,,,0.00,Rainwise IP-100,2013-10-15 18:25:00,
2013-10-15 14:26:00,60.7,47.0,30.07,ENE,67,15.4,15.4,62,0.00,,,0.00,Rainwise IP-100,2013-10-15 18:26:00,
2013-10-15 14:27:00,60.7,47.0,30.07,ENE,67,13.5,15.0,62,0.00,,,0.00,Rainwise IP-100,2013-10-15 18:27:00,
2013-10-15 14:29:00,60.6,47.0,30.07,East,90,13.1,15.0,62,0.00,,,0.00,Rainwise IP-100,2013-10-15 18:29:00,
2013-10-15 14:30:00,60.6,47.0,30.07,ESE,112,11.2,15.0,62,0.00,,,0.00,Rainwise IP-100,2013-10-15 18:30:00,
2013-10-15 14:33:00,60.6,47.0,30.07,ENE,67,12.4,15.0,63,0.00,,,0.00,Rainwise IP-100,2013-10-15 18:33:00,
2013-10-15 14:35:00,60.6,47.0,30.07,ENE,67,14.0,15.0,63,0.00,,,0.00,Rainwise IP-100,2013-10-15 18:35:00,
2013-10-15 14:36:00,60.5,47.0,30.07,ENE,67,11.7,15.0,62,0.00,,,0.00,Rainwise IP-100,2013-10-15 18:36:00,
2013-10-15 14:38:00,60.5,47.0,30.07,ENE,67,14.0,15.0,62,0.00,,,0.00,Rainwise IP-100,2013-10-15 18:38:00,
2013-10-15 14:39:00,60.5,47.0,30.07,ENE,67,12.8,15.0,62,0.00,,,0.00,Rainwise IP-100,2013-10-15 18:39:00,
2013-10-15 14:41:00,60.5,47.0,30.07,ENE,67,10.3,15.0,62,0.00,,,0.00,Rainwise IP-100,2013-10-15 18:41:00,
2013-10-15 14:42:00,60.5,47.0,30.07,ENE,67,11.4,15.0,62,0.00,,,0.00,Rainwise IP-100,2013-10-15 18:42:00,
2013-10-15 14:44:00,60.5,47.0,30.07,East,90,6.8,15.0,61,0.00,,,0.00,Rainwise IP-100,2013-10-15 18:44:00,
2013-10-15 14:46:00,60.7,47.0,30.07,East,90,5.1,15.0,61,0.00,,,0.00,Rainwise IP-100,2013-10-15 18:46:00,
2013-10-15 14:47:00,60.8,47.0,30.07,ENE,67,8.9,15.0,61,0.00,,,0.00,Rainwise IP-100,2013-10-15 18:47:00,
2013-10-15 14:48:00,60.8,47.0,30.06,ENE,67,14.2,14.2,61,0.00,,,0.00,Rainwise IP-100,2013-10-15 18:48:00,
2013-10-15 14:49:00,60.8,47.0,30.06,ENE,67,10.5,14.0,61,0.00,,,0.00,Rainwise IP-100,2013-10-15 18:49:00,
2013-10-15 14:51:00,60.8,47.0,30.06,ESE,112,7.5,14.0,61,0.00,,,0.00,Rainwise IP-100,2013-10-15 18:51:00,
2013-10-15 14:52:00,60.9,47.0,30.07,East,90,9.3,14.0,61,0.00,,,0.00,Rainwise IP-100,2013-10-15 18:52:00,
2013-10-15 14:53:00,61.0,47.0,30.07,East,90,8.6,14.0,62,0.00,,,0.00,Rainwise IP-100,2013-10-15 18:53:00,
2013-10-15 14:54:00,61.1,47.0,30.07,ENE,67,10.7,14.0,62,0.00,,,0.00,Rainwise IP-100,2013-10-15 18:54:00,
2013-10-15 14:55:00,61.1,47.0,30.07,East,90,9.1,14.0,61,0.00,,,0.00,Rainwise IP-100,2013-10-15 18:55:00,
2013-10-15 14:56:00,61.1,47.0,30.07,East,90,12.8,14.0,61,0.00,,,0.00,Rainwise IP-100,2013-10-15 18:56:00,
2013-10-15 14:57:00,61.1,47.0,30.07,ENE,67,9.8,14.0,61,0.00,,,0.00,Rainwise IP-100,2013-10-15 18:57:00,
2013-10-15 14:58:00,61.0,47.0,30.06,ENE,67,11.9,14.0,61,0.00,,,0.00,Rainwise IP-100,2013-10-15 18:58:00,
2013-10-15 15:00:00,61.0,47.0,30.06,ENE,67,12.4,15.0,62,0.00,,,0.00,Rainwise IP-100,2013-10-15 19:00:00,
2013-10-15 15:01:00,60.9,47.0,30.06,ENE,67,11.0,15.0,62,0.00,,,0.00,Rainwise IP-100,2013-10-15 19:01:00,
2013-10-15 15:02:00,60.9,47.0,30.06,East,90,6.5,15.0,62,0.00,,,0.00,Rainwise IP-100,2013-10-15 19:02:00,
2013-10-15 15:03:00,60.9,47.0,30.07,ENE,67,8.9,15.0,62,0.00,,,0.00,Rainwise IP-100,2013-10-15 19:03:00,
2013-10-15 15:05:00,60.9,48.0,30.06,ENE,67,11.4,14.0,63,0.00,,,0.00,Rainwise IP-100,2013-10-15 19:05:00,
2013-10-15 15:07:00,60.8,48.0,30.06,ENE,67,8.9,14.0,64,0.00,,,0.00,Rainwise IP-100,2013-10-15 19:07:00,
2013-10-15 15:08:00,60.8,48.0,30.06,East,90,10.0,14.0,65,0.00,,,0.00,Rainwise IP-100,2013-10-15 19:08:00,
2013-10-15 15:09:00,60.8,48.0,30.06,East,90,7.7,14.0,65,0.00,,,0.00,Rainwise IP-100,2013-10-15 19:09:00,
2013-10-15 15:10:00,60.9,49.0,30.06,East,90,11.4,14.0,65,0.00,,,0.00,Rainwise IP-100,2013-10-15 19:10:00,
2013-10-15 15:12:00,60.9,50.0,30.06,East,90,10.0,14.0,66,0.00,,,0.00,Rainwise IP-100,2013-10-15 19:12:00,
2013-10-15 15:13:00,60.9,50.0,30.06,ESE,112,9.3,14.0,66,0.00,,,0.00,Rainwise IP-100,2013-10-15 19:13:00,
2013-10-15 15:14:00,60.9,50.0,30.06,East,90,5.6,14.0,67,0.00,,,0.00,Rainwise IP-100,2013-10-15 19:14:00,
2013-10-15 15:15:00,60.8,50.0,30.06,East,90,12.8,14.0,67,0.00,,,0.00,Rainwise IP-100,2013-10-15 19:15:00,
2013-10-15 15:17:00,60.8,50.0,30.06,East,90,9.3,13.0,67,0.00,,,0.00,Rainwise IP-100,2013-10-15 19:17:00,
2013-10-15 15:18:00,60.8,50.0,30.06,East,90,10.7,13.0,67,0.00,,,0.00,Rainwise IP-100,2013-10-15 19:18:00,
2013-10-15 15:19:00,60.8,50.0,30.06,East,90,13.1,15.0,67,0.00,,,0.00,Rainwise IP-100,2013-10-15 19:19:00,
2013-10-15 15:21:00,60.8,50.0,30.06,East,90,9.6,15.0,67,0.00,,,0.00,Rainwise IP-100,2013-10-15 19:21:00,
2013-10-15 15:23:00,60.7,50.0,30.07,East,90,12.6,15.0,67,0.00,,,0.00,Rainwise IP-100,2013-10-15 19:23:00,
2013-10-15 15:24:00,60.7,50.0,30.06,East,90,10.0,14.0,67,0.00,,,0.00,Rainwise IP-100,2013-10-15 19:24:00,
2013-10-15 15:25:00,60.7,50.0,30.06,ESE,112,10.3,14.0,67,0.00,,,0.00,Rainwise IP-100,2013-10-15 19:25:00,
2013-10-15 15:26:00,60.7,50.0,30.06,ESE,112,9.6,14.0,67,0.00,,,0.00,Rainwise IP-100,2013-10-15 19:26:00,
2013-10-15 15:28:00,60.7,50.0,30.06,ENE,67,10.3,14.0,67,0.00,,,0.00,Rainwise IP-100,2013-10-15 19:28:00,
2013-10-15 15:29:00,60.8,50.0,30.06,East,90,12.6,14.0,67,0.00,,,0.00,Rainwise IP-100,2013-10-15 19:29:00,
2013-10-15 15:30:00,60.8,50.0,30.06,East,90,11.2,13.0,67,0.00,,,0.00,Rainwise IP-100,2013-10-15 19:30:00,
2013-10-15 15:31:00,60.8,50.0,30.06,ENE,67,11.2,13.0,67,0.00,,,0.00,Rainwise IP-100,2013-10-15 19:31:00,
2013-10-15 15:32:00,60.8,50.0,30.06,ESE,112,12.1,13.0,67,0.00,,,0.00,Rainwise IP-100,2013-10-15 19:32:00,
2013-10-15 15:34:00,60.8,50.0,30.06,ENE,67,9.3,13.0,67,0.00,,,0.00,Rainwise IP-100,2013-10-15 19:34:00,
2013-10-15 15:35:00,60.8,50.0,30.06,East,90,11.9,13.0,67,0.00,,,0.00,Rainwise IP-100,2013-10-15 19:35:00,
2013-10-15 15:36:00,60.9,50.0,30.06,East,90,9.1,13.0,67,0.00,,,0.00,Rainwise IP-100,2013-10-15 19:36:00,
2013-10-15 15:37:00,60.9,50.0,30.06,ENE,67,9.1,13.0,68,0.00,,,0.00,Rainwise IP-100,2013-10-15 19:37:00,
2013-10-15 15:40:00,60.8,50.0,30.06,ENE,67,11.0,13.0,68,0.00,,,0.00,Rainwise IP-100,2013-10-15 19:40:00,
2013-10-15 15:41:00,60.8,50.0,30.06,ENE,67,7.5,13.0,69,0.00,,,0.00,Rainwise IP-100,2013-10-15 19:41:00,
2013-10-15 15:42:00,60.9,50.0,30.06,East,90,14.9,14.9,69,0.00,,,0.00,Rainwise IP-100,2013-10-15 19:42:00,
2013-10-15 15:43:00,60.9,50.0,30.06,East,90,11.9,14.0,69,0.00,,,0.00,Rainwise IP-100,2013-10-15 19:43:00,
2013-10-15 15:45:00,60.8,50.0,30.06,ESE,112,12.1,15.0,69,0.00,,,0.00,Rainwise IP-100,2013-10-15 19:45:00,
2013-10-15 15:46:00,60.8,50.0,30.06,East,90,15.9,15.9,70,0.00,,,0.00,Rainwise IP-100,2013-10-15 19:46:00,
2013-10-15 15:48:00,60.7,50.0,30.06,ENE,67,13.1,15.0,70,0.00,,,0.00,Rainwise IP-100,2013-10-15 19:48:00,
2013-10-15 15:49:00,60.7,50.0,30.06,ENE,67,11.4,15.0,70,0.00,,,0.00,Rainwise IP-100,2013-10-15 19:49:00,
2013-10-15 15:50:00,60.7,50.0,30.06,East,90,11.9,15.0,70,0.00,,,0.00,Rainwise IP-100,2013-10-15 19:50:00,
2013-10-15 15:51:00,60.7,50.0,30.06,East,90,11.2,15.0,70,0.00,,,0.00,Rainwise IP-100,2013-10-15 19:51:00,
2013-10-15 15:52:00,60.6,51.0,30.06,East,90,10.0,14.0,71,0.00,,,0.00,Rainwise IP-100,2013-10-15 19:52:00,
2013-10-15 15:53:00,60.6,51.0,30.06,ENE,67,7.2,13.0,71,0.00,,,0.00,Rainwise IP-100,2013-10-15 19:53:00,
2013-10-15 15:54:00,60.6,51.0,30.06,ENE,67,7.5,12.0,71,0.00,,,0.00,Rainwise IP-100,2013-10-15 19:54:00,
2013-10-15 15:55:00,60.6,51.0,30.06,East,90,10.7,12.0,71,0.00,,,0.00,Rainwise IP-100,2013-10-15 19:55:00,
2013-10-15 15:56:00,60.7,51.0,30.06,ESE,112,8.9,12.0,72,0.00,,,0.00,Rainwise IP-100,2013-10-15 19:56:00,
2013-10-15 15:57:00,60.7,51.0,30.05,ENE,67,7.9,13.0,72,0.00,,,0.00,Rainwise IP-100,2013-10-15 19:57:00,
2013-10-15 15:59:00,60.7,51.0,30.06,East,90,10.7,13.0,72,0.00,,,0.00,Rainwise IP-100,2013-10-15 19:59:00,
2013-10-15 16:00:00,60.7,51.0,30.06,East,90,5.6,13.0,72,0.00,,,0.00,Rainwise IP-100,2013-10-15 20:00:00,
2013-10-15 16:01:00,60.7,51.0,30.06,ENE,67,8.2,13.0,72,0.00,,,0.00,Rainwise IP-100,2013-10-15 20:01:00,
2013-10-15 16:02:00,60.7,51.0,30.05,ENE,67,11.4,12.0,72,0.00,,,0.00,Rainwise IP-100,2013-10-15 20:02:00,
2013-10-15 16:05:00,60.7,51.0,30.06,ENE,67,11.0,14.0,72,0.00,,,0.00,Rainwise IP-100,2013-10-15 20:05:00,
2013-10-15 16:06:00,60.6,52.0,30.06,East,90,11.9,14.0,73,0.00,,,0.00,Rainwise IP-100,2013-10-15 20:06:00,
2013-10-15 16:07:00,60.7,52.0,30.06,East,90,8.2,14.0,73,0.00,,,0.00,Rainwise IP-100,2013-10-15 20:07:00,
2013-10-15 16:08:00,60.6,52.0,30.06,East,90,10.3,14.0,73,0.00,,,0.00,Rainwise IP-100,2013-10-15 20:08:00,
2013-10-15 16:11:00,60.5,52.0,30.06,East,90,8.9,14.0,73,0.00,,,0.00,Rainwise IP-100,2013-10-15 20:11:00,
2013-10-15 16:12:00,60.5,52.0,30.06,ESE,112,12.8,14.0,73,0.00,,,0.00,Rainwise IP-100,2013-10-15 20:12:00,
2013-10-15 16:15:00,60.5,52.0,30.06,SE,135,5.1,13.0,73,0.00,,,0.00,Rainwise IP-100,2013-10-15 20:15:00,
2013-10-15 16:17:00,60.4,52.0,30.06,East,90,8.4,13.0,73,0.00,,,0.00,Rainwise IP-100,2013-10-15 20:17:00,
2013-10-15 16:18:00,60.4,52.0,30.06,ESE,112,12.8,13.0,73,0.00,,,0.00,Rainwise IP-100,2013-10-15 20:18:00,
2013-10-15 16:19:00,60.4,52.0,30.06,ESE,112,11.7,13.0,73,0.00,,,0.00,Rainwise IP-100,2013-10-15 20:19:00,
2013-10-15 16:20:00,60.4,52.0,30.06,East,90,10.5,13.0,73,0.00,,,0.00,Rainwise IP-100,2013-10-15 20:20:00,
2013-10-15 16:22:00,60.5,52.0,30.06,ESE,112,10.5,14.0,73,0.00,,,0.00,Rainwise IP-100,2013-10-15 20:22:00,
2013-10-15 16:23:00,60.5,52.0,30.06,ESE,112,12.1,14.0,73,0.00,,,0.00,Rainwise IP-100,2013-10-15 20:23:00,
2013-10-15 16:24:00,60.4,52.0,30.06,East,90,9.3,14.0,73,0.00,,,0.00,Rainwise IP-100,2013-10-15 20:24:00,
2013-10-15 16:25:00,60.4,52.0,30.06,East,90,6.3,14.0,73,0.00,,,0.00,Rainwise IP-100,2013-10-15 20:25:00,
2013-10-15 16:26:00,60.4,52.0,30.06,ESE,112,4.0,14.0,73,0.00,,,0.00,Rainwise IP-100,2013-10-15 20:26:00,
2013-10-15 16:28:00,60.4,52.0,30.06,ESE,112,7.2,14.0,74,0.00,,,0.00,Rainwise IP-100,2013-10-15 20:28:00,
2013-10-15 16:30:00,60.4,52.0,30.06,ESE,112,8.4,14.0,74,0.00,,,0.00,Rainwise IP-100,2013-10-15 20:30:00,
2013-10-15 16:31:00,60.4,53.0,30.06,ESE,112,10.3,14.0,75,0.00,,,0.00,Rainwise IP-100,2013-10-15 20:31:00,
2013-10-15 16:32:00,60.4,53.0,30.06,ESE,112,9.6,14.0,75,0.00,,,0.00,Rainwise IP-100,2013-10-15 20:32:00,
2013-10-15 16:33:00,60.4,53.0,30.06,ESE,112,7.5,14.0,76,0.00,,,0.00,Rainwise IP-100,2013-10-15 20:33:00,
2013-10-15 16:36:00,60.3,53.0,30.06,East,90,11.0,14.0,76,0.00,,,0.00,Rainwise IP-100,2013-10-15 20:36:00,
2013-10-15 16:38:00,60.2,53.0,30.06,ESE,112,5.6,14.0,76,0.00,,,0.00,Rainwise IP-100,2013-10-15 20:38:00,
2013-10-15 16:39:00,60.2,53.0,30.06,ESE,112,13.1,14.0,77,0.00,,,0.00,Rainwise IP-100,2013-10-15 20:39:00,
2013-10-15 16:40:00,60.2,53.0,30.06,ESE,112,10.0,14.0,77,0.00,,,0.00,Rainwise IP-100,2013-10-15 20:40:00,
2013-10-15 16:41:00,60.2,53.0,30.06,SE,135,12.6,14.0,77,0.00,,,0.00,Rainwise IP-100,2013-10-15 20:41:00,
2013-10-15 16:42:00,60.1,53.0,30.06,ESE,112,7.5,13.0,77,0.00,,,0.00,Rainwise IP-100,2013-10-15 20:42:00,
2013-10-15 16:43:00,60.1,53.0,30.06,ESE,112,8.9,13.0,77,0.00,,,0.00,Rainwise IP-100,2013-10-15 20:43:00,
2013-10-15 16:44:00,60.1,53.0,30.05,East,90,4.2,13.0,77,0.00,,,0.00,Rainwise IP-100,2013-10-15 20:44:00,
2013-10-15 16:46:00,60.0,53.0,30.05,ESE,112,4.4,13.0,77,0.00,,,0.00,Rainwise IP-100,2013-10-15 20:46:00,
2013-10-15 16:47:00,60.0,53.0,30.06,East,90,5.1,11.0,77,0.00,,,0.00,Rainwise IP-100,2013-10-15 20:47:00,
2013-10-15 16:49:00,60.0,53.0,30.05,East,90,11.9,14.0,77,0.00,,,0.00,Rainwise IP-100,2013-10-15 20:49:00,
2013-10-15 16:52:00,59.9,53.0,30.06,ESE,112,11.7,15.0,77,0.00,,,0.00,Rainwise IP-100,2013-10-15 20:52:00,
2013-10-15 16:54:00,59.8,52.0,30.05,ESE,112,15.2,15.2,77,0.00,,,0.00,Rainwise IP-100,2013-10-15 20:54:00,
2013-10-15 16:55:00,59.8,52.0,30.05,East,90,9.1,15.0,77,0.00,,,0.00,Rainwise IP-100,2013-10-15 20:55:00,
2013-10-15 16:57:00,59.7,52.0,30.06,ESE,112,13.5,15.0,77,0.00,,,0.00,Rainwise IP-100,2013-10-15 20:57:00,
2013-10-15 16:58:00,59.7,53.0,30.06,ESE,112,13.8,15.0,78,0.00,,,0.00,Rainwise IP-100,2013-10-15 20:58:00,
2013-10-15 16:59:00,59.6,53.0,30.06,ESE,112,8.9,15.0,78,0.00,,,0.00,Rainwise IP-100,2013-10-15 20:59:00,
2013-10-15 17:00:00,59.6,53.0,30.06,ESE,112,11.4,15.0,78,0.00,,,0.00,Rainwise IP-100,2013-10-15 21:00:00,
2013-10-15 17:02:00,59.5,53.0,30.06,East,90,7.9,15.0,78,0.00,,,0.00,Rainwise IP-100,2013-10-15 21:02:00,
2013-10-15 17:03:00,59.5,53.0,30.06,East,90,11.2,14.0,78,0.00,,,0.00,Rainwise IP-100,2013-10-15 21:03:00,
2013-10-15 17:04:00,59.4,53.0,30.06,ESE,112,9.8,14.0,79,0.00,,,0.00,Rainwise IP-100,2013-10-15 21:04:00,
2013-10-15 17:05:00,59.4,53.0,30.06,ESE,112,3.3,14.0,79,0.00,,,0.00,Rainwise IP-100,2013-10-15 21:05:00,
2013-10-15 17:06:00,59.4,53.0,30.06,East,90,6.1,14.0,79,0.00,,,0.00,Rainwise IP-100,2013-10-15 21:06:00,
2013-10-15 17:08:00,59.3,52.0,30.06,ESE,112,7.7,14.0,78,0.00,,,0.00,Rainwise IP-100,2013-10-15 21:08:00,
2013-10-15 17:10:00,59.3,52.0,30.06,ESE,112,4.9,12.0,78,0.00,,,0.00,Rainwise IP-100,2013-10-15 21:10:00,
2013-10-15 17:12:00,59.2,52.0,30.06,SE,135,7.9,13.0,78,0.00,,,0.00,Rainwise IP-100,2013-10-15 21:12:00,
2013-10-15 17:13:00,59.2,52.0,30.06,ESE,112,10.3,13.0,78,0.00,,,0.00,Rainwise IP-100,2013-10-15 21:13:00,
2013-10-15 17:14:00,59.2,52.0,30.05,ESE,112,5.1,13.0,78,0.00,,,0.00,Rainwise IP-100,2013-10-15 21:14:00,
2013-10-15 17:15:00,59.1,52.0,30.06,East,90,7.9,13.0,78,0.00,,,0.00,Rainwise IP-100,2013-10-15 21:15:00,
2013-10-15 17:16:00,59.1,52.0,30.05,East,90,13.1,13.1,78,0.00,,,0.00,Rainwise IP-100,2013-10-15 21:16:00,
2013-10-15 17:17:00,59.1,52.0,30.06,ESE,112,11.4,15.0,77,0.00,,,0.00,Rainwise IP-100,2013-10-15 21:17:00,
2013-10-15 17:18:00,59.1,52.0,30.06,ESE,112,5.1,15.0,77,0.00,,,0.00,Rainwise IP-100,2013-10-15 21:18:00,
2013-10-15 17:20:00,59.1,52.0,30.05,ESE,112,11.9,15.0,77,0.00,,,0.00,Rainwise IP-100,2013-10-15 21:20:00,
2013-10-15 17:21:00,59.1,52.0,30.05,ESE,112,9.3,15.0,77,0.00,,,0.00,Rainwise IP-100,2013-10-15 21:21:00,
2013-10-15 17:22:00,59.0,52.0,30.05,SE,135,7.5,14.0,77,0.00,,,0.00,Rainwise IP-100,2013-10-15 21:22:00,
2013-10-15 17:23:00,59.0,52.0,30.06,ESE,112,9.1,14.0,77,0.00,,,0.00,Rainwise IP-100,2013-10-15 21:23:00,
2013-10-15 17:26:00,59.0,52.0,30.05,ESE,112,10.7,14.0,78,0.00,,,0.00,Rainwise IP-100,2013-10-15 21:26:00,
2013-10-15 17:27:00,58.9,52.0,30.05,SE,135,10.0,14.0,78,0.00,,,0.00,Rainwise IP-100,2013-10-15 21:27:00,
2013-10-15 17:28:00,58.9,52.0,30.06,ESE,112,14.2,14.2,78,0.00,,,0.00,Rainwise IP-100,2013-10-15 21:28:00,
2013-10-15 17:31:00,58.9,52.0,30.06,ESE,112,6.5,14.0,78,0.00,,,0.00,Rainwise IP-100,2013-10-15 21:31:00,
2013-10-15 17:32:00,58.9,52.0,30.05,ESE,112,11.0,14.0,78,0.00,,,0.00,Rainwise IP-100,2013-10-15 21:32:00,
2013-10-15 17:33:00,58.9,52.0,30.05,ESE,112,10.5,14.0,78,0.00,,,0.00,Rainwise IP-100,2013-10-15 21:33:00,
2013-10-15 17:34:00,58.8,52.0,30.05,ESE,112,7.0,12.0,78,0.00,,,0.00,Rainwise IP-100,2013-10-15 21:34:00,
2013-10-15 17:37:00,58.7,53.0,30.05,ESE,112,9.3,12.0,79,0.00,,,0.00,Rainwise IP-100,2013-10-15 21:37:00,
2013-10-15 17:38:00,58.7,53.0,30.05,ESE,112,7.9,12.0,79,0.00,,,0.00,Rainwise IP-100,2013-10-15 21:38:00,
2013-10-15 17:39:00,58.7,53.0,30.05,ESE,112,10.3,12.0,79,0.00,,,0.00,Rainwise IP-100,2013-10-15 21:39:00,
2013-10-15 17:42:00,58.6,53.0,30.05,ESE,112,12.6,15.0,79,0.00,,,0.00,Rainwise IP-100,2013-10-15 21:42:00,
2013-10-15 17:43:00,58.5,53.0,30.06,ESE,112,12.6,15.0,79,0.00,,,0.00,Rainwise IP-100,2013-10-15 21:43:00,
2013-10-15 17:45:00,58.5,53.0,30.05,ESE,112,8.9,15.0,79,0.00,,,0.00,Rainwise IP-100,2013-10-15 21:45:00,
2013-10-15 17:47:00,58.5,53.0,30.06,East,90,5.1,15.0,79,0.00,,,0.00,Rainwise IP-100,2013-10-15 21:47:00,
2013-10-15 17:48:00,58.5,53.0,30.05,East,90,4.9,13.0,79,0.00,,,0.00,Rainwise IP-100,2013-10-15 21:48:00,
2013-10-15 17:50:00,58.4,52.0,30.05,ESE,112,9.3,12.0,80,0.00,,,0.00,Rainwise IP-100,2013-10-15 21:50:00,
2013-10-15 17:51:00,58.4,52.0,30.05,ESE,112,10.3,12.0,80,0.00,,,0.00,Rainwise IP-100,2013-10-15 21:51:00,
2013-10-15 17:53:00,58.3,52.0,30.06,ESE,112,8.2,13.0,80,0.00,,,0.00,Rainwise IP-100,2013-10-15 21:53:00,
2013-10-15 17:54:00,58.3,53.0,30.05,East,90,12.8,14.0,81,0.00,,,0.00,Rainwise IP-100,2013-10-15 21:54:00,
2013-10-15 17:56:00,58.1,53.0,30.06,ESE,112,11.0,14.0,81,0.00,,,0.00,Rainwise IP-100,2013-10-15 21:56:00,
2013-10-15 17:58:00,58.1,53.0,30.06,ESE,112,11.0,14.0,81,0.00,,,0.00,Rainwise IP-100,2013-10-15 21:58:00,
2013-10-15 17:59:00,58.1,53.0,30.06,ESE,112,12.6,14.0,82,0.00,,,0.00,Rainwise IP-100,2013-10-15 21:59:00,
2013-10-15 18:03:00,58.0,53.0,30.06,East,90,4.4,13.0,82,0.00,,,0.00,Rainwise IP-100,2013-10-15 22:03:00,
2013-10-15 18:04:00,57.9,53.0,30.06,SE,135,9.3,13.0,82,0.00,,,0.00,Rainwise IP-100,2013-10-15 22:04:00,
2013-10-15 18:08:00,57.9,53.0,30.06,East,90,8.9,11.0,83,0.00,,,0.00,Rainwise IP-100,2013-10-15 22:08:00,
2013-10-15 18:09:00,57.8,53.0,30.06,East,90,7.7,11.0,84,0.00,,,0.00,Rainwise IP-100,2013-10-15 22:09:00,
2013-10-15 18:10:00,57.8,53.0,30.05,ESE,112,6.5,11.0,84,0.00,,,0.00,Rainwise IP-100,2013-10-15 22:10:00,
2013-10-15 18:13:00,57.6,53.0,30.05,East,90,8.9,12.0,84,0.00,,,0.00,Rainwise IP-100,2013-10-15 22:13:00,
2013-10-15 18:14:00,57.6,53.0,30.06,East,90,8.4,12.0,84,0.00,,,0.00,Rainwise IP-100,2013-10-15 22:14:00,
2013-10-15 18:16:00,57.6,53.0,30.06,East,90,7.5,12.0,84,0.00,,,0.00,Rainwise IP-100,2013-10-15 22:16:00,
2013-10-15 18:17:00,57.5,53.0,30.06,ESE,112,6.8,11.0,84,0.00,,,0.00,Rainwise IP-100,2013-10-15 22:17:00,
2013-10-15 18:19:00,57.5,53.0,30.06,ESE,112,8.9,12.0,84,0.00,,,0.00,Rainwise IP-100,2013-10-15 22:19:00,
2013-10-15 18:20:00,57.5,53.0,30.06,ESE,112,13.3,13.3,84,0.00,,,0.00,Rainwise IP-100,2013-10-15 22:20:00,
2013-10-15 18:21:00,57.5,53.0,30.06,East,90,6.1,14.0,84,0.00,,,0.00,Rainwise IP-100,2013-10-15 22:21:00,
2013-10-15 18:23:00,57.5,53.0,30.06,ESE,112,10.7,14.0,84,0.00,,,0.00,Rainwise IP-100,2013-10-15 22:23:00,
2013-10-15 18:24:00,57.5,53.0,30.06,ESE,112,9.3,14.0,84,0.00,,,0.00,Rainwise IP-100,2013-10-15 22:24:00,
2013-10-15 18:25:00,57.4,53.0,30.05,ESE,112,9.6,14.0,84,0.00,,,0.00,Rainwise IP-100,2013-10-15 22:25:00,
2013-10-15 18:26:00,57.4,53.0,30.05,East,90,6.3,11.0,83,0.00,,,0.00,Rainwise IP-100,2013-10-15 22:26:00,
2013-10-15 18:28:00,57.4,53.0,30.05,ESE,112,5.1,11.0,83,0.00,,,0.00,Rainwise IP-100,2013-10-15 22:28:00,
2013-10-15 18:29:00,57.5,53.0,30.05,ESE,112,7.7,11.0,83,0.00,,,0.00,Rainwise IP-100,2013-10-15 22:29:00,
2013-10-15 18:30:00,57.5,53.0,30.05,East,90,7.0,11.0,83,0.00,,,0.00,Rainwise IP-100,2013-10-15 22:30:00,
2013-10-15 18:31:00,57.5,53.0,30.05,East,90,7.2,11.0,83,0.00,,,0.00,Rainwise IP-100,2013-10-15 22:31:00,
2013-10-15 18:32:00,57.4,53.0,30.05,ESE,112,10.0,11.0,83,0.00,,,0.00,Rainwise IP-100,2013-10-15 22:32:00,
2013-10-15 18:33:00,57.4,53.0,30.05,East,90,10.7,12.0,83,0.00,,,0.00,Rainwise IP-100,2013-10-15 22:33:00,
2013-10-15 18:35:00,57.4,53.0,30.05,ESE,112,9.1,13.0,83,0.00,,,0.00,Rainwise IP-100,2013-10-15 22:35:00,
2013-10-15 18:36:00,57.4,53.0,30.05,East,90,5.8,13.0,83,0.00,,,0.00,Rainwise IP-100,2013-10-15 22:36:00,
2013-10-15 18:37:00,57.4,53.0,30.05,ESE,112,4.7,13.0,83,0.00,,,0.00,Rainwise IP-100,2013-10-15 22:37:00,
2013-10-15 18:39:00,57.4,53.0,30.05,ESE,112,8.9,11.0,83,0.00,,,0.00,Rainwise IP-100,2013-10-15 22:39:00,
2013-10-15 18:41:00,57.4,53.0,30.05,East,90,8.2,12.0,83,0.00,,,0.00,Rainwise IP-100,2013-10-15 22:41:00,
2013-10-15 18:42:00,57.4,53.0,30.05,ESE,112,13.8,13.8,83,0.00,,,0.00,Rainwise IP-100,2013-10-15 22:42:00,
2013-10-15 18:46:00,57.5,53.0,30.05,SE,135,7.9,14.0,83,0.00,,,0.00,Rainwise IP-100,2013-10-15 22:46:00,
2013-10-15 18:47:00,57.5,53.0,30.05,East,90,7.7,14.0,83,0.00,,,0.00,Rainwise IP-100,2013-10-15 22:47:00,
2013-10-15 18:50:00,57.6,53.0,30.06,East,90,9.1,14.0,83,0.00,,,0.00,Rainwise IP-100,2013-10-15 22:50:00,
2013-10-15 18:51:00,57.6,53.0,30.06,ESE,112,8.2,12.0,83,0.00,,,0.00,Rainwise IP-100,2013-10-15 22:51:00,
2013-10-15 18:52:00,57.7,53.0,30.05,SE,135,7.9,12.0,83,0.00,,,0.00,Rainwise IP-100,2013-10-15 22:52:00,
2013-10-15 18:55:00,57.7,53.0,30.05,ESE,112,7.5,12.0,83,0.00,,,0.00,Rainwise IP-100,2013-10-15 22:55:00,
2013-10-15 18:56:00,57.7,53.0,30.05,SE,135,11.4,15.0,83,0.00,,,0.00,Rainwise IP-100,2013-10-15 22:56:00,
2013-10-15 18:57:00,57.7,52.0,30.05,East,90,10.7,15.0,82,0.00,,,0.00,Rainwise IP-100,2013-10-15 22:57:00,
2013-10-15 18:58:00,57.7,52.0,30.05,ESE,112,10.0,15.0,82,0.00,,,0.00,Rainwise IP-100,2013-10-15 22:58:00,
2013-10-15 19:00:00,57.7,52.0,30.05,East,90,6.1,15.0,82,0.00,,,0.00,Rainwise IP-100,2013-10-15 23:00:00,
2013-10-15 19:01:00,57.7,52.0,30.05,ESE,112,5.8,13.0,82,0.00,,,0.00,Rainwise IP-100,2013-10-15 23:01:00,
2013-10-15 19:02:00,57.7,52.0,30.05,ESE,112,9.8,13.0,82,0.00,,,0.00,Rainwise IP-100,2013-10-15 23:02:00,
2013-10-15 19:03:00,57.7,52.0,30.05,ESE,112,14.7,15.0,82,0.00,,,0.00,Rainwise IP-100,2013-10-15 23:03:00,
2013-10-15 19:04:00,57.7,52.0,30.05,ESE,112,13.1,15.0,82,0.00,,,0.00,Rainwise IP-100,2013-10-15 23:04:00,
2013-10-15 19:05:00,57.8,52.0,30.05,East,90,14.9,15.0,82,0.00,,,0.00,Rainwise IP-100,2013-10-15 23:05:00,
2013-10-15 19:06:00,57.8,52.0,30.06,ESE,112,11.4,15.0,82,0.00,,,0.00,Rainwise IP-100,2013-10-15 23:06:00,
2013-10-15 19:07:00,57.8,52.0,30.06,East,90,10.5,15.0,82,0.00,,,0.00,Rainwise IP-100,2013-10-15 23:07:00,
2013-10-15 19:08:00,57.8,52.0,30.05,East,90,10.7,15.0,82,0.00,,,0.00,Rainwise IP-100,2013-10-15 23:08:00,
2013-10-15 19:09:00,57.8,52.0,30.06,ESE,112,7.5,15.0,82,0.00,,,0.00,Rainwise IP-100,2013-10-15 23:09:00,
2013-10-15 19:10:00,57.8,52.0,30.05,ENE,67,6.3,14.0,82,0.00,,,0.00,Rainwise IP-100,2013-10-15 23:10:00,
2013-10-15 19:11:00,57.8,52.0,30.06,East,90,7.2,14.0,82,0.00,,,0.00,Rainwise IP-100,2013-10-15 23:11:00,
2013-10-15 19:13:00,57.8,53.0,30.06,East,90,7.5,14.0,83,0.00,,,0.00,Rainwise IP-100,2013-10-15 23:13:00,
2013-10-15 19:15:00,57.7,53.0,30.06,ESE,112,6.8,14.0,83,0.00,,,0.00,Rainwise IP-100,2013-10-15 23:15:00,
2013-10-15 19:16:00,57.7,53.0,30.06,East,90,6.8,14.0,83,0.00,,,0.00,Rainwise IP-100,2013-10-15 23:16:00,
2013-10-15 19:17:00,57.7,53.0,30.06,ENE,67,9.8,14.0,83,0.00,,,0.00,Rainwise IP-100,2013-10-15 23:17:00,
2013-10-15 19:18:00,57.6,53.0,30.06,ESE,112,10.5,14.0,83,0.00,,,0.00,Rainwise IP-100,2013-10-15 23:18:00,
2013-10-15 19:21:00,57.6,53.0,30.06,East,90,9.3,15.0,84,0.00,,,0.00,Rainwise IP-100,2013-10-15 23:21:00,
2013-10-15 19:22:00,57.6,53.0,30.06,East,90,5.8,15.0,84,0.00,,,0.00,Rainwise IP-100,2013-10-15 23:22:00,
2013-10-15 19:23:00,57.6,53.0,30.06,ENE,67,7.7,15.0,84,0.00,,,0.00,Rainwise IP-100,2013-10-15 23:23:00,
2013-10-15 19:24:00,57.6,53.0,30.06,East,90,10.0,13.0,84,0.00,,,0.00,Rainwise IP-100,2013-10-15 23:24:00,
2013-10-15 19:26:00,57.5,53.0,30.06,East,90,10.7,13.0,84,0.00,,,0.00,Rainwise IP-100,2013-10-15 23:26:00,
2013-10-15 19:27:00,57.5,53.0,30.06,East,90,8.9,13.0,84,0.00,,,0.00,Rainwise IP-100,2013-10-15 23:27:00,
2013-10-15 19:28:00,57.6,53.0,30.06,East,90,8.4,13.0,84,0.00,,,0.00,Rainwise IP-100,2013-10-15 23:28:00,
2013-10-15 19:29:00,57.5,53.0,30.06,ESE,112,4.9,13.0,84,0.00,,,0.00,Rainwise IP-100,2013-10-15 23:29:00,
2013-10-15 19:30:00,57.5,53.0,30.06,East,90,5.6,13.0,84,0.00,,,0.00,Rainwise IP-100,2013-10-15 23:30:00,
2013-10-15 19:32:00,57.5,53.0,30.06,SE,135,9.8,12.0,85,0.00,,,0.00,Rainwise IP-100,2013-10-15 23:32:00,
2013-10-15 19:33:00,57.5,53.0,30.06,East,90,14.2,15.0,85,0.00,,,0.00,Rainwise IP-100,2013-10-15 23:33:00,
2013-10-15 19:34:00,57.5,53.0,30.05,ESE,112,6.3,15.0,85,0.00,,,0.00,Rainwise IP-100,2013-10-15 23:34:00,
2013-10-15 19:35:00,57.5,53.0,30.06,East,90,9.6,15.0,85,0.00,,,0.00,Rainwise IP-100,2013-10-15 23:35:00,
2013-10-15 19:37:00,57.5,53.0,30.06,East,90,7.7,15.0,85,0.00,,,0.00,Rainwise IP-100,2013-10-15 23:37:00,
2013-10-15 19:38:00,57.5,53.0,30.06,ESE,112,10.0,14.0,85,0.00,,,0.00,Rainwise IP-100,2013-10-15 23:38:00,
2013-10-15 19:39:00,57.5,53.0,30.06,East,90,8.9,13.0,85,0.00,,,0.00,Rainwise IP-100,2013-10-15 23:39:00,
2013-10-15 19:41:00,57.5,53.0,30.06,East,90,10.7,13.0,85,0.00,,,0.00,Rainwise IP-100,2013-10-15 23:41:00,
2013-10-15 19:44:00,57.5,53.0,30.06,East,90,6.3,13.0,85,0.00,,,0.00,Rainwise IP-100,2013-10-15 23:44:00,
2013-10-15 19:45:00,57.5,53.0,30.05,ESE,112,9.1,13.0,85,0.00,,,0.00,Rainwise IP-100,2013-10-15 23:45:00,
2013-10-15 19:46:00,57.5,53.0,30.06,ENE,67,11.4,13.0,85,0.00,,,0.00,Rainwise IP-100,2013-10-15 23:46:00,
2013-10-15 19:47:00,57.5,53.0,30.05,East,90,11.0,14.0,85,0.00,,,0.00,Rainwise IP-100,2013-10-15 23:47:00,
2013-10-15 19:49:00,57.5,53.0,30.06,ESE,112,10.7,14.0,85,0.00,,,0.00,Rainwise IP-100,2013-10-15 23:49:00,
2013-10-15 19:50:00,57.5,53.0,30.05,ESE,112,4.4,14.0,85,0.00,,,0.00,Rainwise IP-100,2013-10-15 23:50:00,
2013-10-15 19:51:00,57.5,53.0,30.06,ENE,67,9.6,14.0,85,0.00,,,0.00,Rainwise IP-100,2013-10-15 23:51:00,
2013-10-15 19:52:00,57.5,53.0,30.06,ENE,67,11.9,13.0,85,0.00,,,0.00,Rainwise IP-100,2013-10-15 23:52:00,
2013-10-15 19:54:00,57.5,53.0,30.05,East,90,5.6,16.0,84,0.00,,,0.00,Rainwise IP-100,2013-10-15 23:54:00,
2013-10-15 19:55:00,57.5,53.0,30.05,East,90,10.7,16.0,84,0.00,,,0.00,Rainwise IP-100,2013-10-15 23:55:00,
2013-10-15 19:56:00,57.6,53.0,30.05,ESE,112,9.6,16.0,84,0.00,,,0.00,Rainwise IP-100,2013-10-15 23:56:00,
2013-10-15 19:57:00,57.6,53.0,30.06,East,90,10.5,16.0,84,0.00,,,0.00,Rainwise IP-100,2013-10-15 23:57:00,
2013-10-15 19:59:00,57.6,53.0,30.06,ESE,112,7.2,15.0,84,0.00,,,0.00,Rainwise IP-100,2013-10-15 23:59:00,
2013-10-15 20:00:00,57.6,53.0,30.05,East,90,9.6,15.0,84,0.00,,,0.00,Rainwise IP-100,2013-10-16 00:00:00,
2013-10-15 20:02:00,57.6,53.0,30.05,ESE,112,11.0,16.0,84,0.00,,,0.00,Rainwise IP-100,2013-10-16 00:02:00,
2013-10-15 20:03:00,57.6,53.0,30.05,East,90,6.3,16.0,84,0.00,,,0.00,Rainwise IP-100,2013-10-16 00:03:00,
2013-10-15 20:04:00,57.6,53.0,30.06,East,90,12.8,16.0,84,0.00,,,0.00,Rainwise IP-100,2013-10-16 00:04:00,
2013-10-15 20:05:00,57.7,53.0,30.06,East,90,11.7,16.0,84,0.00,,,0.00,Rainwise IP-100,2013-10-16 00:05:00,
2013-10-15 20:07:00,57.6,53.0,30.05,ESE,112,13.1,15.0,84,0.00,,,0.00,Rainwise IP-100,2013-10-16 00:07:00,
2013-10-15 20:08:00,57.6,53.0,30.05,East,90,10.5,17.0,84,0.00,,,0.00,Rainwise IP-100,2013-10-16 00:08:00,
2013-10-15 20:10:00,57.6,53.0,30.05,ESE,112,7.2,17.0,84,0.00,,,0.00,Rainwise IP-100,2013-10-16 00:10:00,
2013-10-15 20:11:00,57.6,53.0,30.05,SE,135,13.3,17.0,84,0.00,,,0.00,Rainwise IP-100,2013-10-16 00:11:00,
2013-10-15 20:13:00,57.6,53.0,30.05,ESE,112,9.6,17.0,84,0.00,,,0.00,Rainwise IP-100,2013-10-16 00:13:00,
2013-10-15 20:15:00,57.6,53.0,30.05,ESE,112,14.2,17.0,84,0.00,,,0.00,Rainwise IP-100,2013-10-16 00:15:00,
2013-10-15 20:16:00,57.6,53.0,30.05,ESE,112,16.8,17.0,84,0.00,,,0.00,Rainwise IP-100,2013-10-16 00:16:00,
2013-10-15 20:19:00,57.6,53.0,30.05,East,90,9.3,17.0,85,0.00,,,0.00,Rainwise IP-100,2013-10-16 00:19:00,
2013-10-15 20:20:00,57.6,53.0,30.05,ESE,112,10.3,17.0,85,0.00,,,0.00,Rainwise IP-100,2013-10-16 00:20:00,
2013-10-15 20:21:00,57.6,53.0,30.05,ESE,112,10.3,17.0,85,0.00,,,0.00,Rainwise IP-100,2013-10-16 00:21:00,
2013-10-15 20:22:00,57.5,53.0,30.05,ESE,112,12.8,14.0,85,0.00,,,0.00,Rainwise IP-100,2013-10-16 00:22:00,
2013-10-15 20:25:00,57.5,53.0,30.05,ESE,112,7.0,17.0,85,0.00,,,0.00,Rainwise IP-100,2013-10-16 00:25:00,
2013-10-15 20:26:00,57.5,53.0,30.05,ESE,112,7.0,17.0,85,0.00,,,0.00,Rainwise IP-100,2013-10-16 00:26:00,
2013-10-15 20:27:00,57.5,53.0,30.05,ESE,112,11.2,17.0,85,0.00,,,0.00,Rainwise IP-100,2013-10-16 00:27:00,
2013-10-15 20:30:00,57.5,53.0,30.05,ESE,112,9.3,16.0,86,0.00,,,0.00,Rainwise IP-100,2013-10-16 00:30:00,
2013-10-15 20:31:00,57.5,53.0,30.05,East,90,6.1,16.0,86,0.00,,,0.00,Rainwise IP-100,2013-10-16 00:31:00,
2013-10-15 20:32:00,57.5,53.0,30.05,ESE,112,12.4,16.0,86,0.00,,,0.00,Rainwise IP-100,2013-10-16 00:32:00,
2013-10-15 20:33:00,57.5,53.0,30.05,ESE,112,11.4,16.0,86,0.00,,,0.00,Rainwise IP-100,2013-10-16 00:33:00,
2013-10-15 20:35:00,57.5,53.0,30.05,ESE,112,9.1,16.0,86,0.00,,,0.00,Rainwise IP-100,2013-10-16 00:35:00,
2013-10-15 20:37:00,57.4,53.0,30.05,East,90,12.4,15.0,85,0.00,,,0.00,Rainwise IP-100,2013-10-16 00:37:00,
2013-10-15 20:38:00,57.4,53.0,30.05,East,90,14.5,15.0,85,0.00,,,0.00,Rainwise IP-100,2013-10-16 00:38:00,
2013-10-15 20:39:00,57.4,53.0,30.05,East,90,8.6,15.0,85,0.00,,,0.00,Rainwise IP-100,2013-10-16 00:39:00,
2013-10-15 20:40:00,57.4,53.0,30.05,East,90,10.0,15.0,85,0.00,,,0.00,Rainwise IP-100,2013-10-16 00:40:00,
2013-10-15 20:41:00,57.4,53.0,30.06,ESE,112,6.1,15.0,85,0.00,,,0.00,Rainwise IP-100,2013-10-16 00:41:00,
2013-10-15 20:42:00,57.4,53.0,30.05,East,90,7.2,15.0,85,0.00,,,0.00,Rainwise IP-100,2013-10-16 00:42:00,
2013-10-15 20:43:00,57.4,53.0,30.05,ESE,112,11.2,14.0,85,0.00,,,0.00,Rainwise IP-100,2013-10-16 00:43:00,
2013-10-15 20:44:00,57.4,53.0,30.05,ESE,112,9.8,14.0,85,0.00,,,0.00,Rainwise IP-100,2013-10-16 00:44:00,
2013-10-15 20:46:00,57.4,53.0,30.05,ESE,112,6.1,13.0,86,0.00,,,0.00,Rainwise IP-100,2013-10-16 00:46:00,
2013-10-15 20:47:00,57.4,53.0,30.05,ESE,112,8.6,13.0,86,0.00,,,0.00,Rainwise IP-100,2013-10-16 00:47:00,
2013-10-15 20:49:00,57.4,53.0,30.06,ENE,67,8.2,17.0,86,0.00,,,0.00,Rainwise IP-100,2013-10-16 00:49:00,
2013-10-15 20:51:00,57.3,53.0,30.05,East,90,14.0,17.0,86,0.00,,,0.00,Rainwise IP-100,2013-10-16 00:51:00,
2013-10-15 20:52:00,57.3,53.0,30.05,ESE,112,9.6,17.0,86,0.00,,,0.00,Rainwise IP-100,2013-10-16 00:52:00,
2013-10-15 20:53:00,57.3,53.0,30.05,ESE,112,9.6,15.0,86,0.00,,,0.00,Rainwise IP-100,2013-10-16 00:53:00,
2013-10-15 20:54:00,57.3,53.0,30.05,ESE,112,13.8,15.0,86,0.00,,,0.00,Rainwise IP-100,2013-10-16 00:54:00,
2013-10-15 20:55:00,57.3,53.0,30.06,ESE,112,9.6,15.0,86,0.00,,,0.00,Rainwise IP-100,2013-10-16 00:55:00,
2013-10-15 20:56:00,57.3,53.0,30.06,SE,135,9.6,15.0,86,0.00,,,0.00,Rainwise IP-100,2013-10-16 00:56:00,
2013-10-15 20:58:00,57.4,53.0,30.06,SE,135,3.5,15.0,86,0.00,,,0.00,Rainwise IP-100,2013-10-16 00:58:00,
2013-10-15 20:59:00,57.4,53.0,30.06,ESE,112,10.0,15.0,86,0.00,,,0.00,Rainwise IP-100,2013-10-16 00:59:00,
2013-10-15 21:00:00,57.4,53.0,30.06,East,90,7.2,15.0,86,0.00,,,0.00,Rainwise IP-100,2013-10-16 01:00:00,
2013-10-15 21:01:00,57.4,53.0,30.06,ESE,112,10.5,15.0,86,0.00,,,0.00,Rainwise IP-100,2013-10-16 01:01:00,
2013-10-15 21:03:00,57.4,53.0,30.06,ESE,112,11.2,15.0,85,0.00,,,0.00,Rainwise IP-100,2013-10-16 01:03:00,
2013-10-15 21:04:00,57.4,53.0,30.06,ESE,112,9.3,15.0,85,0.00,,,0.00,Rainwise IP-100,2013-10-16 01:04:00,
2013-10-15 21:05:00,57.4,53.0,30.06,East,90,12.6,15.0,85,0.00,,,0.00,Rainwise IP-100,2013-10-16 01:05:00,
2013-10-15 21:06:00,57.4,53.0,30.05,East,90,12.4,16.0,85,0.00,,,0.00,Rainwise IP-100,2013-10-16 01:06:00,
2013-10-15 21:07:00,57.3,53.0,30.06,East,90,7.2,16.0,85,0.00,,,0.00,Rainwise IP-100,2013-10-16 01:07:00,
2013-10-15 21:08:00,57.3,52.0,30.06,East,90,10.3,16.0,84,0.00,,,0.00,Rainwise IP-100,2013-10-16 01:08:00,
2013-10-15 21:10:00,57.3,52.0,30.06,ESE,112,8.4,16.0,84,0.00,,,0.00,Rainwise IP-100,2013-10-16 01:10:00,
2013-10-15 21:11:00,57.3,52.0,30.06,ESE,112,7.2,16.0,84,0.00,,,0.00,Rainwise IP-100,2013-10-16 01:11:00,
2013-10-15 21:13:00,57.3,52.0,30.06,ESE,112,14.7,14.7,84,0.00,,,0.00,Rainwise IP-100,2013-10-16 01:13:00,
2013-10-15 21:14:00,57.3,52.0,30.06,East,90,8.2,14.0,84,0.00,,,0.00,Rainwise IP-100,2013-10-16 01:14:00,
2013-10-15 21:15:00,57.3,52.0,30.06,ESE,112,9.3,14.0,84,0.00,,,0.00,Rainwise IP-100,2013-10-16 01:15:00,
2013-10-15 21:17:00,57.3,52.0,30.06,East,90,9.1,14.0,83,0.00,,,0.00,Rainwise IP-100,2013-10-16 01:17:00,
2013-10-15 21:18:00,57.3,52.0,30.06,ESE,112,6.5,14.0,83,0.00,,,0.00,Rainwise IP-100,2013-10-16 01:18:00,
2013-10-15 21:19:00,57.3,52.0,30.06,ENE,67,8.9,13.0,83,0.00,,,0.00,Rainwise IP-100,2013-10-16 01:19:00,
2013-10-15 21:20:00,57.3,52.0,30.06,ESE,112,6.5,13.0,83,0.00,,,0.00,Rainwise IP-100,2013-10-16 01:20:00,
2013-10-15 21:21:00,57.3,52.0,30.06,ESE,112,9.3,14.0,82,0.00,,,0.00,Rainwise IP-100,2013-10-16 01:21:00,
2013-10-15 21:22:00,57.3,52.0,30.06,ESE,112,5.8,14.0,82,0.00,,,0.00,Rainwise IP-100,2013-10-16 01:22:00,
2013-10-15 21:23:00,57.2,52.0,30.06,ESE,112,10.7,14.0,82,0.00,,,0.00,Rainwise IP-100,2013-10-16 01:23:00,
2013-10-15 21:24:00,57.2,51.0,30.06,East,90,9.3,14.0,81,0.00,,,0.00,Rainwise IP-100,2013-10-16 01:24:00,
2013-10-15 21:25:00,57.2,51.0,30.06,East,90,7.9,14.0,81,0.00,,,0.00,Rainwise IP-100,2013-10-16 01:25:00,
2013-10-15 21:26:00,57.2,51.0,30.06,East,90,7.7,12.0,81,0.00,,,0.00,Rainwise IP-100,2013-10-16 01:26:00,
2013-10-15 21:28:00,57.2,51.0,30.06,East,90,9.1,12.0,80,0.00,,,0.00,Rainwise IP-100,2013-10-16 01:28:00,
2013-10-15 21:29:00,57.3,51.0,30.06,East,90,11.4,12.0,80,0.00,,,0.00,Rainwise IP-100,2013-10-16 01:29:00,
2013-10-15 21:31:00,57.3,50.0,30.07,East,90,9.6,12.0,79,0.00,,,0.00,Rainwise IP-100,2013-10-16 01:31:00,
2013-10-15 21:33:00,57.3,50.0,30.06,East,90,11.2,12.0,79,0.00,,,0.00,Rainwise IP-100,2013-10-16 01:33:00,
2013-10-15 21:34:00,57.3,50.0,30.06,East,90,8.9,13.0,79,0.00,,,0.00,Rainwise IP-100,2013-10-16 01:34:00,
2013-10-15 21:36:00,57.3,50.0,30.06,ESE,112,10.5,15.0,79,0.00,,,0.00,Rainwise IP-100,2013-10-16 01:36:00,
2013-10-15 21:37:00,57.3,50.0,30.06,East,90,10.0,15.0,79,0.00,,,0.00,Rainwise IP-100,2013-10-16 01:37:00,
2013-10-15 21:38:00,57.3,50.0,30.06,East,90,9.6,15.0,79,0.00,,,0.00,Rainwise IP-100,2013-10-16 01:38:00,
2013-10-15 21:39:00,57.2,50.0,30.06,East,90,9.8,15.0,79,0.00,,,0.00,Rainwise IP-100,2013-10-16 01:39:00,
2013-10-15 21:41:00,57.2,51.0,30.06,East,90,12.4,14.0,80,0.00,,,0.00,Rainwise IP-100,2013-10-16 01:41:00,
2013-10-15 21:43:00,57.3,51.0,30.06,ENE,67,8.2,14.0,80,0.00,,,0.00,Rainwise IP-100,2013-10-16 01:43:00,
2013-10-15 21:44:00,57.3,51.0,30.06,ENE,67,7.0,14.0,81,0.00,,,0.00,Rainwise IP-100,2013-10-16 01:44:00,
2013-10-15 21:45:00,57.3,51.0,30.05,East,90,8.2,16.0,81,0.00,,,0.00,Rainwise IP-100,2013-10-16 01:45:00,
2013-10-15 21:46:00,57.3,51.0,30.06,East,90,12.6,16.0,81,0.00,,,0.00,Rainwise IP-100,2013-10-16 01:46:00,
2013-10-15 21:48:00,57.3,52.0,30.06,ENE,67,9.1,16.0,82,0.00,,,0.00,Rainwise IP-100,2013-10-16 01:48:00,
2013-10-15 21:49:00,57.2,52.0,30.06,ENE,67,12.4,16.0,82,0.00,,,0.00,Rainwise IP-100,2013-10-16 01:49:00,
2013-10-15 21:50:00,57.2,52.0,30.06,ESE,112,12.4,14.0,82,0.00,,,0.00,Rainwise IP-100,2013-10-16 01:50:00,
2013-10-15 21:51:00,57.2,52.0,30.06,East,90,12.4,14.0,82,0.00,,,0.00,Rainwise IP-100,2013-10-16 01:51:00,
2013-10-15 21:53:00,57.2,52.0,30.06,East,90,12.4,13.0,82,0.00,,,0.00,Rainwise IP-100,2013-10-16 01:53:00,
2013-10-15 21:54:00,57.2,52.0,30.06,ENE,67,9.3,13.0,82,0.00,,,0.00,Rainwise IP-100,2013-10-16 01:54:00,
2013-10-15 21:55:00,57.2,52.0,30.06,East,90,13.3,13.3,82,0.00,,,0.00,Rainwise IP-100,2013-10-16 01:55:00,
2013-10-15 21:56:00,57.2,52.0,30.06,East,90,12.8,14.0,82,0.00,,,0.00,Rainwise IP-100,2013-10-16 01:56:00,
2013-10-15 21:57:00,57.2,52.0,30.06,ENE,67,11.2,14.0,82,0.00,,,0.00,Rainwise IP-100,2013-10-16 01:57:00,
2013-10-15 21:59:00,57.2,52.0,30.06,ENE,67,11.0,14.0,82,0.00,,,0.00,Rainwise IP-100,2013-10-16 01:59:00,
2013-10-15 22:01:00,57.2,51.0,30.06,ENE,67,9.6,14.0,81,0.00,,,0.00,Rainwise IP-100,2013-10-16 02:01:00,
2013-10-15 22:02:00,57.2,51.0,30.06,ENE,67,9.8,14.0,81,0.00,,,0.00,Rainwise IP-100,2013-10-16 02:02:00,
2013-10-15 22:04:00,57.2,51.0,30.06,East,90,15.4,15.4,81,0.00,,,0.00,Rainwise IP-100,2013-10-16 02:04:00,
2013-10-15 22:05:00,57.2,51.0,30.05,ENE,67,11.2,17.0,80,0.00,,,0.00,Rainwise IP-100,2013-10-16 02:05:00,
2013-10-15 22:06:00,57.2,51.0,30.05,ENE,67,12.6,17.0,80,0.00,,,0.00,Rainwise IP-100,2013-10-16 02:06:00,
2013-10-15 22:07:00,57.2,51.0,30.05,ENE,67,17.3,17.3,80,0.00,,,0.00,Rainwise IP-100,2013-10-16 02:07:00,
2013-10-15 22:08:00,57.2,51.0,30.05,ENE,67,11.7,17.0,80,0.00,,,0.00,Rainwise IP-100,2013-10-16 02:08:00,
2013-10-15 22:10:00,57.2,51.0,30.05,ENE,67,13.5,18.0,80,0.00,,,0.00,Rainwise IP-100,2013-10-16 02:10:00,
2013-10-15 22:11:00,57.2,51.0,30.04,ENE,67,14.7,18.0,80,0.00,,,0.00,Rainwise IP-100,2013-10-16 02:11:00,
2013-10-15 22:12:00,57.2,51.0,30.05,ENE,67,11.9,18.0,80,0.00,,,0.00,Rainwise IP-100,2013-10-16 02:12:00,
2013-10-15 22:13:00,57.2,51.0,30.05,East,90,11.4,18.0,80,0.00,,,0.00,Rainwise IP-100,2013-10-16 02:13:00,
2013-10-15 22:15:00,57.2,51.0,30.05,ENE,67,12.4,16.0,80,0.00,,,0.00,Rainwise IP-100,2013-10-16 02:15:00,
2013-10-15 22:16:00,57.2,51.0,30.05,ENE,67,11.9,16.0,81,0.00,,,0.00,Rainwise IP-100,2013-10-16 02:16:00,
2013-10-15 22:17:00,57.2,51.0,30.05,East,90,10.0,16.0,81,0.00,,,0.00,Rainwise IP-100,2013-10-16 02:17:00,
2013-10-15 22:18:00,57.2,51.0,30.04,East,90,12.1,16.0,81,0.00,,,0.00,Rainwise IP-100,2013-10-16 02:18:00,
2013-10-15 22:19:00,57.2,51.0,30.05,ENE,67,12.6,16.0,81,0.00,,,0.00,Rainwise IP-100,2013-10-16 02:19:00,
2013-10-15 22:20:00,57.2,51.0,30.04,East,90,11.7,16.0,81,0.00,,,0.00,Rainwise IP-100,2013-10-16 02:20:00,
2013-10-15 22:21:00,57.2,51.0,30.04,ENE,67,14.7,16.0,81,0.00,,,0.00,Rainwise IP-100,2013-10-16 02:21:00,
2013-10-15 22:22:00,57.2,51.0,30.04,ENE,67,11.2,16.0,81,0.00,,,0.00,Rainwise IP-100,2013-10-16 02:22:00,
2013-10-15 22:23:00,57.2,51.0,30.04,East,90,10.5,16.0,81,0.00,,,0.00,Rainwise IP-100,2013-10-16 02:23:00,
2013-10-15 22:24:00,57.2,51.0,30.04,ENE,67,12.4,16.0,81,0.00,,,0.00,Rainwise IP-100,2013-10-16 02:24:00,
2013-10-15 22:25:00,57.2,51.0,30.04,East,90,7.7,15.0,80,0.00,,,0.00,Rainwise IP-100,2013-10-16 02:25:00,
2013-10-15 22:26:00,57.2,51.0,30.04,East,90,8.2,15.0,80,0.00,,,0.00,Rainwise IP-100,2013-10-16 02:26:00,
2013-10-15 22:28:00,57.2,51.0,30.04,East,90,14.7,15.0,80,0.00,,,0.00,Rainwise IP-100,2013-10-16 02:28:00,
2013-10-15 22:29:00,57.2,51.0,30.04,ENE,67,12.4,15.0,80,0.00,,,0.00,Rainwise IP-100,2013-10-16 02:29:00,
2013-10-15 22:30:00,57.2,51.0,30.04,ENE,67,12.6,15.0,81,0.00,,,0.00,Rainwise IP-100,2013-10-16 02:30:00,
2013-10-15 22:31:00,57.2,51.0,30.03,ENE,67,9.8,15.0,81,0.00,,,0.00,Rainwise IP-100,2013-10-16 02:31:00,
2013-10-15 22:32:00,57.2,51.0,30.05,ENE,67,14.5,15.0,81,0.00,,,0.00,Rainwise IP-100,2013-10-16 02:32:00,
2013-10-15 22:33:00,57.2,51.0,30.04,ENE,67,8.6,15.0,81,0.00,,,0.00,Rainwise IP-100,2013-10-16 02:33:00,
2013-10-15 22:35:00,57.2,51.0,30.03,ENE,67,17.3,17.3,80,0.00,,,0.00,Rainwise IP-100,2013-10-16 02:35:00,
2013-10-15 22:37:00,57.2,51.0,30.04,ENE,67,12.8,17.0,80,0.00,,,0.00,Rainwise IP-100,2013-10-16 02:37:00,
2013-10-15 22:39:00,57.2,51.0,30.04,ENE,67,11.2,17.0,80,0.00,,,0.00,Rainwise IP-100,2013-10-16 02:39:00,
2013-10-15 22:40:00,57.2,51.0,30.04,ENE,67,13.1,17.0,80,0.00,,,0.00,Rainwise IP-100,2013-10-16 02:40:00,
2013-10-15 22:43:00,57.2,51.0,30.03,East,90,11.9,17.0,81,0.00,,,0.00,Rainwise IP-100,2013-10-16 02:43:00,
2013-10-15 22:44:00,57.2,51.0,30.03,East,90,10.0,17.0,81,0.00,,,0.00,Rainwise IP-100,2013-10-16 02:44:00,
2013-10-15 22:45:00,57.2,51.0,30.03,ENE,67,14.5,17.0,81,0.00,,,0.00,Rainwise IP-100,2013-10-16 02:45:00,
2013-10-15 22:46:00,57.2,52.0,30.03,East,90,11.2,16.0,82,0.00,,,0.00,Rainwise IP-100,2013-10-16 02:46:00,
2013-10-15 22:48:00,57.2,52.0,30.03,ENE,67,9.3,16.0,82,0.00,,,0.00,Rainwise IP-100,2013-10-16 02:48:00,
2013-10-15 22:49:00,57.2,52.0,30.04,ENE,67,11.0,16.0,83,0.00,,,0.00,Rainwise IP-100,2013-10-16 02:49:00,
2013-10-15 22:50:00,57.2,52.0,30.04,East,90,11.0,16.0,83,0.00,,,0.00,Rainwise IP-100,2013-10-16 02:50:00,
2013-10-15 22:51:00,57.1,52.0,30.04,ENE,67,10.3,14.0,83,0.00,,,0.00,Rainwise IP-100,2013-10-16 02:51:00,
2013-10-15 22:54:00,57.1,52.0,30.04,ENE,67,11.0,14.0,83,0.00,,,0.00,Rainwise IP-100,2013-10-16 02:54:00,
2013-10-15 22:55:00,57.1,52.0,30.03,ENE,67,10.7,16.0,84,0.00,,,0.00,Rainwise IP-100,2013-10-16 02:55:00,
2013-10-15 22:56:00,57.1,52.0,30.03,ENE,67,11.7,16.0,84,0.00,,,0.00,Rainwise IP-100,2013-10-16 02:56:00,
2013-10-15 22:57:00,57.1,52.0,30.03,ENE,67,12.1,16.0,84,0.00,,,0.00,Rainwise IP-100,2013-10-16 02:57:00,
2013-10-15 22:59:00,57.1,52.0,30.03,ENE,67,7.9,16.0,84,0.00,,,0.00,Rainwise IP-100,2013-10-16 02:59:00,
2013-10-15 23:00:00,57.1,52.0,30.03,ENE,67,10.5,14.0,84,0.00,,,0.00,Rainwise IP-100,2013-10-16 03:00:00,
2013-10-15 23:01:00,57.1,52.0,30.03,ENE,67,11.7,14.0,84,0.00,,,0.00,Rainwise IP-100,2013-10-16 03:01:00,
2013-10-15 23:02:00,57.1,52.0,30.03,ENE,67,10.7,14.0,84,0.00,,,0.00,Rainwise IP-100,2013-10-16 03:02:00,
2013-10-15 23:03:00,57.1,53.0,30.03,ENE,67,11.7,14.0,85,0.00,,,0.00,Rainwise IP-100,2013-10-16 03:03:00,
2013-10-15 23:05:00,57.0,53.0,30.03,ENE,67,12.4,14.0,85,0.00,,,0.00,Rainwise IP-100,2013-10-16 03:05:00,
2013-10-15 23:06:00,57.0,53.0,30.03,ENE,67,10.5,14.0,85,0.00,,,0.00,Rainwise IP-100,2013-10-16 03:06:00,
2013-10-15 23:07:00,57.0,53.0,30.03,ENE,67,13.1,14.0,85,0.00,,,0.00,Rainwise IP-100,2013-10-16 03:07:00,
2013-10-15 23:09:00,57.0,53.0,30.03,ENE,67,11.0,14.0,85,0.00,,,0.00,Rainwise IP-100,2013-10-16 03:09:00,
2013-10-15 23:11:00,57.0,53.0,30.03,ENE,67,11.0,14.0,86,0.00,,,0.00,Rainwise IP-100,2013-10-16 03:11:00,
2013-10-15 23:12:00,56.9,53.0,30.03,ENE,67,10.7,14.0,86,0.00,,,0.00,Rainwise IP-100,2013-10-16 03:12:00,
2013-10-15 23:14:00,56.9,53.0,30.03,East,90,11.0,15.0,86,0.00,,,0.00,Rainwise IP-100,2013-10-16 03:14:00,
2013-10-15 23:16:00,57.0,53.0,30.03,ENE,67,11.4,15.0,86,0.00,,,0.00,Rainwise IP-100,2013-10-16 03:16:00,
2013-10-15 23:17:00,57.0,53.0,30.02,ENE,67,11.4,15.0,86,0.00,,,0.00,Rainwise IP-100,2013-10-16 03:17:00,
2013-10-15 23:18:00,57.0,53.0,30.02,ENE,67,11.4,16.0,86,0.00,,,0.00,Rainwise IP-100,2013-10-16 03:18:00,
2013-10-15 23:19:00,57.0,53.0,30.03,East,90,10.5,16.0,86,0.00,,,0.00,Rainwise IP-100,2013-10-16 03:19:00,
2013-10-15 23:21:00,57.0,53.0,30.03,East,90,8.4,16.0,86,0.00,,,0.00,Rainwise IP-100,2013-10-16 03:21:00,
2013-10-15 23:22:00,57.0,53.0,30.02,ENE,67,10.0,16.0,86,0.00,,,0.00,Rainwise IP-100,2013-10-16 03:22:00,
2013-10-15 23:23:00,57.1,53.0,30.02,ENE,67,7.7,13.0,86,0.00,,,0.00,Rainwise IP-100,2013-10-16 03:23:00,
2013-10-15 23:24:00,57.1,53.0,30.02,ENE,67,13.8,13.8,86,0.00,,,0.00,Rainwise IP-100,2013-10-16 03:24:00,
2013-10-15 23:26:00,57.0,53.0,30.02,ENE,67,14.9,15.0,86,0.00,,,0.00,Rainwise IP-100,2013-10-16 03:26:00,
2013-10-15 23:27:00,57.0,53.0,30.02,ENE,67,13.8,16.0,87,0.00,,,0.00,Rainwise IP-100,2013-10-16 03:27:00,
2013-10-15 23:28:00,57.0,53.0,30.02,ENE,67,10.3,16.0,87,0.00,,,0.00,Rainwise IP-100,2013-10-16 03:28:00,
2013-10-15 23:29:00,56.9,53.0,30.02,ENE,67,12.1,16.0,87,0.00,,,0.00,Rainwise IP-100,2013-10-16 03:29:00,
2013-10-15 23:30:00,56.9,53.0,30.02,ENE,67,7.7,16.0,88,0.00,,,0.00,Rainwise IP-100,2013-10-16 03:30:00,
2013-10-15 23:32:00,56.9,53.0,30.02,ENE,67,11.2,14.0,88,0.00,,,0.00,Rainwise IP-100,2013-10-16 03:32:00,
2013-10-15 23:33:00,56.8,53.0,30.02,ENE,67,9.1,16.0,88,0.00,,,0.00,Rainwise IP-100,2013-10-16 03:33:00,
2013-10-15 23:35:00,56.8,53.0,30.02,ENE,67,14.5,16.0,88,0.00,,,0.00,Rainwise IP-100,2013-10-16 03:35:00,
2013-10-15 23:37:00,56.8,53.0,30.02,ENE,67,10.7,16.0,89,0.00,,,0.00,Rainwise IP-100,2013-10-16 03:37:00,
2013-10-15 23:38:00,56.7,53.0,30.01,ENE,67,13.1,16.0,89,0.00,,,0.00,Rainwise IP-100,2013-10-16 03:38:00,
2013-10-15 23:39:00,56.7,53.0,30.02,ENE,67,14.7,16.0,89,0.00,,,0.00,Rainwise IP-100,2013-10-16 03:39:00,
2013-10-15 23:40:00,56.7,53.0,30.02,ENE,67,7.9,15.0,89,0.00,,,0.00,Rainwise IP-100,2013-10-16 03:40:00,
2013-10-15 23:42:00,56.7,53.0,30.02,ENE,67,11.7,15.0,88,0.00,,,0.00,Rainwise IP-100,2013-10-16 03:42:00,
2013-10-15 23:43:00,56.7,53.0,30.02,ENE,67,12.6,15.0,88,0.00,,,0.00,Rainwise IP-100,2013-10-16 03:43:00,
2013-10-15 23:44:00,56.7,53.0,30.02,ENE,67,11.4,15.0,88,0.00,,,0.00,Rainwise IP-100,2013-10-16 03:44:00,
2013-10-15 23:45:00,56.8,53.0,30.02,NE,45,10.0,15.0,88,0.00,,,0.00,Rainwise IP-100,2013-10-16 03:45:00,
2013-10-15 23:47:00,56.8,53.0,30.02,ENE,67,11.7,14.0,88,0.00,,,0.00,Rainwise IP-100,2013-10-16 03:47:00,
2013-10-15 23:49:00,56.8,53.0,30.02,ENE,67,10.7,15.0,88,0.00,,,0.00,Rainwise IP-100,2013-10-16 03:49:00,
2013-10-15 23:50:00,56.8,53.0,30.02,ENE,67,9.3,15.0,88,0.00,,,0.00,Rainwise IP-100,2013-10-16 03:50:00,
2013-10-15 23:52:00,56.8,53.0,30.02,NE,45,11.7,15.0,88,0.00,,,0.00,Rainwise IP-100,2013-10-16 03:52:00,
2013-10-15 23:54:00,56.8,53.0,30.02,ENE,67,7.7,14.0,88,0.00,,,0.00,Rainwise IP-100,2013-10-16 03:54:00,
2013-10-15 23:55:00,56.8,53.0,30.02,ENE,67,9.1,14.0,88,0.00,,,0.00,Rainwise IP-100,2013-10-16 03:55:00,
2013-10-15 23:56:00,56.8,53.0,30.02,ENE,67,11.4,14.0,88,0.00,,,0.00,Rainwise IP-100,2013-10-16 03:56:00,
2013-10-15 23:57:00,56.7,53.0,30.02,NE,45,5.4,14.0,88,0.00,,,0.00,Rainwise IP-100,2013-10-16 03:57:00,